Wetterdaten: Dienstag, 25.06.2013
Datum Zeit Temp. Aussen +5cm Feuchte Auss Luftdruck Regen Sonnenschein Regendauer UV Solar Windben
25.06.2013 00:00 12,2 C 11,2 C 96 % 1023,9 hPa 0,0 l/m 0 min 0 min 0,0 UV-I 0 W/m 0,0 km/h (0 Bft)
25.06.2013 00:02 12,2 C 11,2 C 96 % 1023,9 hPa 0,0 l/m 0 min 0 min 0,0 UV-I 0 W/m 2,6 km/h (1 Bft)
25.06.2013 00:06 12,2 C 11,2 C 96 % 1023,9 hPa 0,0 l/m 0 min 0 min 0,0 UV-I 0 W/m 2,6 km/h (1 Bft)
25.06.2013 00:08 12,2 C 11,2 C 96 % 1024,0 hPa 0,0 l/m 0 min 0 min 0,0 UV-I 0 W/m 0,0 km/h (0 Bft)
25.06.2013 00:10 12,2 C 11,2 C 96 % 1024,0 hPa 0,0 l/m 0 min 0 min 0,0 UV-I 0 W/m 0,0 km/h (0 Bft)
25.06.2013 00:12 12,2 C 11,2 C 96 % 1024,1 hPa 0,0 l/m 0 min 0 min 0,0 UV-I 0 W/m 0,0 km/h (0 Bft)
25.06.2013 00:14 12,2 C 11,2 C 96 % 1024,0 hPa 0,0 l/m 0 min 0 min 0,0 UV-I 0 W/m 2,6 km/h (1 Bft)
25.06.2013 00:16 12,2 C 11,2 C 96 % 1024,0 hPa 0,0 l/m 0 min 0 min 0,0 UV-I 0 W/m 0,0 km/h (0 Bft)
25.06.2013 00:18 12,2 C 11,2 C 96 % 1024,0 hPa 0,0 l/m 0 min 0 min 0,0 UV-I 0 W/m 0,0 km/h (0 Bft)
25.06.2013 00:20 12,2 C 11,2 C 96 % 1023,9 hPa 0,0 l/m 0 min 0 min 0,0 UV-I 0 W/m 0,0 km/h (0 Bft)
25.06.2013 00:22 12,2 C 11,2 C 96 % 1024,0 hPa 0,0 l/m 0 min 0 min 0,0 UV-I 0 W/m 5,1 km/h (1 Bft)
25.06.2013 00:24 12,2 C 11,2 C 96 % 1024,0 hPa 0,0 l/m 0 min 0 min 0,0 UV-I 0 W/m 2,6 km/h (1 Bft)
25.06.2013 00:26 12,2 C 11,2 C 97 % 1024,0 hPa 0,0 l/m 0 min 0 min 0,0 UV-I 0 W/m 0,0 km/h (0 Bft)
25.06.2013 00:28 12,2 C 11,2 C 97 % 1024,0 hPa 0,0 l/m 0 min 0 min 0,0 UV-I 0 W/m 2,6 km/h (1 Bft)
25.06.2013 00:30 12,2 C 11,2 C 97 % 1024,0 hPa 0,0 l/m 0 min 0 min 0,0 UV-I 0 W/m 0,0 km/h (0 Bft)
25.06.2013 00:32 12,2 C 11,2 C 97 % 1024,0 hPa 0,0 l/m 0 min 0 min 0,0 UV-I 0 W/m 0,0 km/h (0 Bft)
25.06.2013 00:34 12,2 C 11,2 C 97 % 1024,0 hPa 0,0 l/m 0 min 0 min 0,0 UV-I 0 W/m 0,0 km/h (0 Bft)
25.06.2013 00:36 12,2 C 11,2 C 97 % 1024,1 hPa 0,0 l/m 0 min 0 min 0,0 UV-I 0 W/m 10,3 km/h (2 Bft)
25.06.2013 00:38 12,2 C 11,2 C 97 % 1024,1 hPa 0,0 l/m 0 min 0 min 0,0 UV-I 0 W/m 0,0 km/h (0 Bft)
25.06.2013 00:40 12,2 C 11,2 C 97 % 1024,1 hPa 0,0 l/m 0 min 0 min 0,0 UV-I 0 W/m 2,6 km/h (1 Bft)
25.06.2013 00:42 12,2 C 11,2 C 97 % 1024,1 hPa 0,0 l/m 0 min 0 min 0,0 UV-I 0 W/m 0,0 km/h (0 Bft)
25.06.2013 00:44 12,2 C 11,2 C 97 % 1024,0 hPa 0,0 l/m 0 min 0 min 0,0 UV-I 0 W/m 0,0 km/h (0 Bft)
25.06.2013 00:46 12,2 C 11,2 C 97 % 1024,0 hPa 0,0 l/m 0 min 0 min 0,0 UV-I 0 W/m 0,0 km/h (0 Bft)
25.06.2013 00:48 12,2 C 11,2 C 97 % 1024,0 hPa 0,0 l/m 0 min 0 min 0,0 UV-I 0 W/m 5,1 km/h (1 Bft)
25.06.2013 00:50 12,1 C 11,2 C 97 % 1024,0 hPa 0,0 l/m 0 min 0 min 0,0 UV-I 0 W/m 0,0 km/h (0 Bft)
25.06.2013 00:52 12,1 C 11,2 C 96 % 1024,1 hPa 0,0 l/m 0 min 0 min 0,0 UV-I 0 W/m 0,0 km/h (0 Bft)
25.06.2013 00:54 12,1 C 11,2 C 96 % 1024,0 hPa 0,0 l/m 0 min 0 min 0,0 UV-I 0 W/m 2,6 km/h (1 Bft)
25.06.2013 00:56 12,1 C 11,2 C 96 % 1024,0 hPa 0,0 l/m 0 min 0 min 0,0 UV-I 0 W/m 0,0 km/h (0 Bft)
25.06.2013 00:58 12,1 C 11,2 C 97 % 1024,1 hPa 0,0 l/m 0 min 0 min 0,0 UV-I 0 W/m 7,7 km/h (2 Bft)
25.06.2013 01:00 12,1 C 11,2 C 97 % 1024,1 hPa 0,0 l/m 0 min 0 min 0,0 UV-I 0 W/m 2,6 km/h (1 Bft)
25.06.2013 01:02 12,1 C 11,2 C 97 % 1024,1 hPa 0,0 l/m 0 min 0 min 0,0 UV-I 0 W/m 0,0 km/h (0 Bft)
25.06.2013 01:06 12,1 C 11,2 C 97 % 1024,1 hPa 0,0 l/m 0 min 0 min 0,0 UV-I 0 W/m 0,0 km/h (0 Bft)
25.06.2013 01:08 12,1 C 11,2 C 97 % 1024,2 hPa 0,0 l/m 0 min 0 min 0,0 UV-I 0 W/m 5,1 km/h (1 Bft)
25.06.2013 01:10 12,1 C 11,2 C 97 % 1024,2 hPa 0,0 l/m 0 min 0 min 0,0 UV-I 0 W/m 0,0 km/h (0 Bft)
25.06.2013 01:12 12,1 C 11,2 C 97 % 1024,2 hPa 0,0 l/m 0 min 0 min 0,0 UV-I 0 W/m 0,0 km/h (0 Bft)
25.06.2013 01:14 12,1 C 11,2 C 97 % 1024,2 hPa 0,0 l/m 0 min 0 min 0,0 UV-I 0 W/m 0,0 km/h (0 Bft)
25.06.2013 01:16 12,1 C 11,2 C 97 % 1024,2 hPa 0,0 l/m 0 min 0 min 0,0 UV-I 0 W/m 7,7 km/h (2 Bft)
25.06.2013 01:18 12,1 C 11,2 C 97 % 1024,1 hPa 0,0 l/m 0 min 0 min 0,0 UV-I 0 W/m 5,1 km/h (1 Bft)
25.06.2013 01:20 12,1 C 11,2 C 97 % 1024,1 hPa 0,0 l/m 0 min 0 min 0,0 UV-I 0 W/m 5,1 km/h (1 Bft)
25.06.2013 01:22 12,1 C 11,2 C 97 % 1024,1 hPa 0,0 l/m 0 min 0 min 0,0 UV-I 0 W/m 2,6 km/h (1 Bft)
25.06.2013 01:24 12,1 C 11,2 C 97 % 1024,1 hPa 0,0 l/m 0 min 0 min 0,0 UV-I 0 W/m 0,0 km/h (0 Bft)
25.06.2013 01:26 12,0 C 11,2 C 97 % 1024,2 hPa 0,0 l/m 0 min 0 min 0,0 UV-I 0 W/m 0,0 km/h (0 Bft)
25.06.2013 01:28 12,0 C 11,2 C 97 % 1024,1 hPa 0,0 l/m 0 min 0 min 0,0 UV-I 0 W/m 5,1 km/h (1 Bft)
25.06.2013 01:30 12,0 C 11,2 C 97 % 1024,2 hPa 0,0 l/m 0 min 0 min 0,0 UV-I 0 W/m 2,6 km/h (1 Bft)
25.06.2013 01:32 12,0 C 11,2 C 97 % 1024,1 hPa 0,0 l/m 0 min 0 min 0,0 UV-I 0 W/m 0,0 km/h (0 Bft)
25.06.2013 01:34 12,0 C 11,2 C 97 % 1024,1 hPa 0,0 l/m 0 min 0 min 0,0 UV-I 0 W/m 0,0 km/h (0 Bft)
25.06.2013 01:36 12,0 C 11,2 C 97 % 1024,1 hPa 0,0 l/m 0 min 0 min 0,0 UV-I 0 W/m 0,0 km/h (0 Bft)
25.06.2013 01:38 12,0 C 11,2 C 97 % 1024,1 hPa 0,0 l/m 0 min 0 min 0,0 UV-I 0 W/m 0,0 km/h (0 Bft)
25.06.2013 01:40 12,0 C 11,2 C 97 % 1024,1 hPa 0,0 l/m 0 min 0 min 0,0 UV-I 0 W/m 7,7 km/h (2 Bft)
25.06.2013 01:42 12,0 C 11,2 C 97 % 1024,1 hPa 0,0 l/m 0 min 0 min 0,0 UV-I 0 W/m 7,7 km/h (2 Bft)
25.06.2013 01:44 11,9 C 11,2 C 97 % 1024,1 hPa 0,0 l/m 0 min 0 min 0,0 UV-I 0 W/m 10,3 km/h (2 Bft)
25.06.2013 01:46 11,9 C 11,2 C 97 % 1024,1 hPa 0,0 l/m 0 min 0 min 0,0 UV-I 0 W/m 2,6 km/h (1 Bft)
25.06.2013 01:48 11,9 C 11,2 C 97 % 1024,2 hPa 0,0 l/m 0 min 0 min 0,0 UV-I 0 W/m 0,0 km/h (0 Bft)
25.06.2013 01:50 11,9 C 11,2 C 97 % 1024,1 hPa 0,0 l/m 0 min 0 min 0,0 UV-I 0 W/m 2,6 km/h (1 Bft)
25.06.2013 01:52 11,9 C 10,7 C 97 % 1024,2 hPa 0,0 l/m 0 min 0 min 0,0 UV-I 0 W/m 0,0 km/h (0 Bft)
25.06.2013 01:54 11,9 C 10,7 C 97 % 1024,1 hPa 0,0 l/m 0 min 0 min 0,0 UV-I 0 W/m 2,6 km/h (1 Bft)
25.06.2013 01:56 11,9 C 10,7 C 97 % 1024,1 hPa 0,0 l/m 0 min 0 min 0,0 UV-I 0 W/m 0,0 km/h (0 Bft)
25.06.2013 01:58 11,9 C 10,7 C 97 % 1024,1 hPa 0,0 l/m 0 min 0 min 0,0 UV-I 0 W/m 0,0 km/h (0 Bft)
25.06.2013 02:00 11,9 C 10,7 C 97 % 1024,1 hPa 0,0 l/m 0 min 0 min 0,0 UV-I 0 W/m 0,0 km/h (0 Bft)
25.06.2013 02:02 11,8 C 10,7 C 97 % 1024,1 hPa 0,0 l/m 0 min 0 min 0,0 UV-I 0 W/m 0,0 km/h (0 Bft)
25.06.2013 02:06 11,8 C 10,7 C 97 % 1024,1 hPa 0,0 l/m 0 min 0 min 0,0 UV-I 0 W/m 0,0 km/h (0 Bft)
25.06.2013 02:08 11,8 C 10,7 C 97 % 1024,1 hPa 0,0 l/m 0 min 0 min 0,0 UV-I 0 W/m 2,6 km/h (1 Bft)
25.06.2013 02:10 11,8 C 10,7 C 97 % 1024,1 hPa 0,0 l/m 0 min 0 min 0,0 UV-I 0 W/m 0,0 km/h (0 Bft)
25.06.2013 02:12 11,8 C 10,7 C 97 % 1024,1 hPa 0,0 l/m 0 min 0 min 0,0 UV-I 0 W/m 0,0 km/h (0 Bft)
25.06.2013 02:14 11,8 C 10,7 C 97 % 1024,1 hPa 0,0 l/m 0 min 0 min 0,0 UV-I 0 W/m 0,0 km/h (0 Bft)
25.06.2013 02:16 11,8 C 10,7 C 97 % 1024,1 hPa 0,0 l/m 0 min 0 min 0,0 UV-I 0 W/m 0,0 km/h (0 Bft)
25.06.2013 02:18 11,8 C 10,7 C 97 % 1024,1 hPa 0,0 l/m 0 min 0 min 0,0 UV-I 0 W/m 0,0 km/h (0 Bft)
25.06.2013 02:20 11,8 C 10,7 C 97 % 1024,1 hPa 0,0 l/m 0 min 0 min 0,0 UV-I 0 W/m 0,0 km/h (0 Bft)
25.06.2013 02:22 11,8 C 10,7 C 97 % 1024,1 hPa 0,0 l/m 0 min 0 min 0,0 UV-I 0 W/m 2,6 km/h (1 Bft)
25.06.2013 02:24 11,7 C 10,7 C 96 % 1024,1 hPa 0,0 l/m 0 min 0 min 0,0 UV-I 0 W/m 2,6 km/h (1 Bft)
25.06.2013 02:26 11,7 C 10,7 C 96 % 1024,1 hPa 0,0 l/m 0 min 0 min 0,0 UV-I 0 W/m 0,0 km/h (0 Bft)
25.06.2013 02:28 11,7 C 10,7 C 96 % 1024,2 hPa 0,0 l/m 0 min 0 min 0,0 UV-I 0 W/m 0,0 km/h (0 Bft)
25.06.2013 02:30 11,7 C 10,7 C 96 % 1024,2 hPa 0,0 l/m 0 min 0 min 0,0 UV-I 0 W/m 0,0 km/h (0 Bft)
25.06.2013 02:32 11,7 C 10,1 C 96 % 1024,2 hPa 0,0 l/m 0 min 0 min 0,0 UV-I 0 W/m 0,0 km/h (0 Bft)
25.06.2013 02:34 11,7 C 10,1 C 96 % 1024,2 hPa 0,0 l/m 0 min 0 min 0,0 UV-I 0 W/m 0,0 km/h (0 Bft)
25.06.2013 02:36 11,7 C 10,1 C 96 % 1024,2 hPa 0,0 l/m 0 min 0 min 0,0 UV-I 0 W/m 0,0 km/h (0 Bft)
25.06.2013 02:38 11,6 C 10,1 C 96 % 1024,3 hPa 0,0 l/m 0 min 0 min 0,0 UV-I 0 W/m 0,0 km/h (0 Bft)
25.06.2013 02:40 11,6 C 10,1 C 96 % 1024,2 hPa 0,0 l/m 0 min 0 min 0,0 UV-I 0 W/m 5,1 km/h (1 Bft)
25.06.2013 02:42 11,6 C 10,1 C 96 % 1024,2 hPa 0,0 l/m 0 min 0 min 0,0 UV-I 0 W/m 0,0 km/h (0 Bft)
25.06.2013 02:44 11,6 C 10,1 C 96 % 1024,2 hPa 0,0 l/m 0 min 0 min 0,0 UV-I 0 W/m 0,0 km/h (0 Bft)
25.06.2013 02:46 11,6 C 10,1 C 96 % 1024,2 hPa 0,0 l/m 0 min 0 min 0,0 UV-I 0 W/m 0,0 km/h (0 Bft)
25.06.2013 02:48 11,6 C 10,1 C 96 % 1024,3 hPa 0,0 l/m 0 min 0 min 0,0 UV-I 0 W/m 0,0 km/h (0 Bft)
25.06.2013 02:50 11,5 C 10,1 C 96 % 1024,2 hPa 0,0 l/m 0 min 0 min 0,0 UV-I 0 W/m 0,0 km/h (0 Bft)
25.06.2013 02:52 11,4 C 10,1 C 96 % 1024,2 hPa 0,0 l/m 0 min 0 min 0,0 UV-I 0 W/m 0,0 km/h (0 Bft)
25.06.2013 02:54 11,4 C 10,1 C 96 % 1024,2 hPa 0,0 l/m 0 min 0 min 0,0 UV-I 0 W/m 0,0 km/h (0 Bft)
25.06.2013 02:56 11,4 C 9,6 C 96 % 1024,3 hPa 0,0 l/m 0 min 0 min 0,0 UV-I 0 W/m 0,0 km/h (0 Bft)
25.06.2013 02:58 11,4 C 9,6 C 96 % 1024,2 hPa 0,0 l/m 0 min 0 min 0,0 UV-I 0 W/m 0,0 km/h (0 Bft)
25.06.2013 03:00 11,4 C 9,6 C 96 % 1024,2 hPa 0,0 l/m 0 min 0 min 0,0 UV-I 0 W/m 0,0 km/h (0 Bft)
25.06.2013 03:02 11,3 C 9,6 C 96 % 1024,3 hPa 0,0 l/m 0 min 0 min 0,0 UV-I 0 W/m 0,0 km/h (0 Bft)
25.06.2013 03:06 11,3 C 10,1 C 96 % 1024,2 hPa 0,0 l/m 0 min 0 min 0,0 UV-I 0 W/m 0,0 km/h (0 Bft)
25.06.2013 03:08 11,3 C 10,1 C 96 % 1024,3 hPa 0,0 l/m 0 min 0 min 0,0 UV-I 0 W/m 0,0 km/h (0 Bft)
25.06.2013 03:10 11,3 C 10,1 C 96 % 1024,2 hPa 0,0 l/m 0 min 0 min 0,0 UV-I 0 W/m 0,0 km/h (0 Bft)
25.06.2013 03:12 11,3 C 10,1 C 96 % 1024,3 hPa 0,0 l/m 0 min 0 min 0,0 UV-I 0 W/m 0,0 km/h (0 Bft)
25.06.2013 03:14 11,3 C 10,1 C 96 % 1024,3 hPa 0,0 l/m 0 min 0 min 0,0 UV-I 0 W/m 0,0 km/h (0 Bft)
25.06.2013 03:16 11,2 C 10,1 C 96 % 1024,3 hPa 0,0 l/m 0 min 0 min 0,0 UV-I 0 W/m 0,0 km/h (0 Bft)
25.06.2013 03:18 11,2 C 10,1 C 96 % 1024,3 hPa 0,0 l/m 0 min 0 min 0,0 UV-I 0 W/m 0,0 km/h (0 Bft)
25.06.2013 03:20 11,2 C 10,1 C 96 % 1024,3 hPa 0,0 l/m 0 min 0 min 0,0 UV-I 0 W/m 0,0 km/h (0 Bft)
25.06.2013 03:22 11,2 C 10,1 C 96 % 1024,3 hPa 0,0 l/m 0 min 0 min 0,0 UV-I 0 W/m 0,0 km/h (0 Bft)
25.06.2013 03:24 11,2 C 10,1 C 96 % 1024,3 hPa 0,0 l/m 0 min 0 min 0,0 UV-I 0 W/m 0,0 km/h (0 Bft)
25.06.2013 03:26 11,2 C 10,1 C 96 % 1024,3 hPa 0,0 l/m 0 min 0 min 0,0 UV-I 0 W/m 0,0 km/h (0 Bft)
25.06.2013 03:28 11,2 C 10,1 C 96 % 1024,3 hPa 0,0 l/m 0 min 0 min 0,0 UV-I 0 W/m 0,0 km/h (0 Bft)
25.06.2013 03:30 11,2 C 10,7 C 96 % 1024,3 hPa 0,0 l/m 0 min 0 min 0,0 UV-I 0 W/m 0,0 km/h (0 Bft)
25.06.2013 03:32 11,2 C 10,7 C 96 % 1024,4 hPa 0,0 l/m 0 min 0 min 0,0 UV-I 0 W/m 0,0 km/h (0 Bft)
25.06.2013 03:34 11,2 C 10,1 C 96 % 1024,4 hPa 0,0 l/m 0 min 0 min 0,0 UV-I 0 W/m 0,0 km/h (0 Bft)
25.06.2013 03:36 11,2 C 10,1 C 96 % 1024,4 hPa 0,0 l/m 0 min 0 min 0,0 UV-I 0 W/m 0,0 km/h (0 Bft)
25.06.2013 03:38 11,2 C 10,7 C 96 % 1024,4 hPa 0,0 l/m 0 min 0 min 0,0 UV-I 0 W/m 0,0 km/h (0 Bft)
25.06.2013 03:40 11,2 C 10,7 C 96 % 1024,4 hPa 0,0 l/m 0 min 0 min 0,0 UV-I 0 W/m 0,0 km/h (0 Bft)
25.06.2013 03:42 11,2 C 10,7 C 96 % 1024,5 hPa 0,0 l/m 0 min 0 min 0,0 UV-I 0 W/m 0,0 km/h (0 Bft)
25.06.2013 03:44 11,2 C 10,7 C 96 % 1024,4 hPa 0,0 l/m 0 min 0 min 0,0 UV-I 0 W/m 0,0 km/h (0 Bft)
25.06.2013 03:46 11,2 C 10,7 C 96 % 1024,5 hPa 0,0 l/m 0 min 0 min 0,0 UV-I 0 W/m 0,0 km/h (0 Bft)
25.06.2013 03:48 11,2 C 10,7 C 96 % 1024,5 hPa 0,0 l/m 0 min 0 min 0,0 UV-I 0 W/m 0,0 km/h (0 Bft)
25.06.2013 03:50 11,2 C 10,7 C 96 % 1024,5 hPa 0,0 l/m 0 min 0 min 0,0 UV-I 0 W/m 0,0 km/h (0 Bft)
25.06.2013 03:52 11,2 C 10,7 C 96 % 1024,5 hPa 0,0 l/m 0 min 0 min 0,0 UV-I 0 W/m 0,0 km/h (0 Bft)
25.06.2013 03:54 11,2 C 10,7 C 96 % 1024,6 hPa 0,0 l/m 0 min 0 min 0,0 UV-I 0 W/m 0,0 km/h (0 Bft)
25.06.2013 03:56 11,2 C 10,7 C 96 % 1024,6 hPa 0,0 l/m 0 min 0 min 0,0 UV-I 0 W/m 0,0 km/h (0 Bft)
25.06.2013 03:58 11,2 C 10,7 C 96 % 1024,6 hPa 0,0 l/m 0 min 0 min 0,0 UV-I 0 W/m 0,0 km/h (0 Bft)
25.06.2013 04:00 11,2 C 10,1 C 96 % 1024,6 hPa 0,0 l/m 0 min 0 min 0,0 UV-I 0 W/m 0,0 km/h (0 Bft)
25.06.2013 04:05 11,2 C 10,1 C 96 % 1024,7 hPa 0,0 l/m 0 min 0 min 0,0 UV-I 0 W/m 0,0 km/h (0 Bft)
25.06.2013 04:06 11,2 C 10,1 C 96 % 1024,6 hPa 0,0 l/m 0 min 0 min 0,0 UV-I 0 W/m 0,0 km/h (0 Bft)
25.06.2013 04:08 11,1 C 10,1 C 96 % 1024,7 hPa 0,0 l/m 0 min 0 min 0,0 UV-I 0 W/m 0,0 km/h (0 Bft)
25.06.2013 04:10 11,1 C 10,1 C 96 % 1024,6 hPa 0,0 l/m 0 min 0 min 0,0 UV-I 0 W/m 0,0 km/h (0 Bft)
25.06.2013 04:12 11,1 C 10,1 C 96 % 1024,7 hPa 0,0 l/m 0 min 0 min 0,0 UV-I 0 W/m 0,0 km/h (0 Bft)
25.06.2013 04:14 11,1 C 10,1 C 96 % 1024,7 hPa 0,0 l/m 0 min 0 min 0,0 UV-I 0 W/m 0,0 km/h (0 Bft)
25.06.2013 04:16 11,1 C 10,1 C 96 % 1024,7 hPa 0,0 l/m 0 min 0 min 0,0 UV-I 0 W/m 0,0 km/h (0 Bft)
25.06.2013 04:18 11,1 C 10,1 C 96 % 1024,7 hPa 0,0 l/m 0 min 0 min 0,0 UV-I 0 W/m 0,0 km/h (0 Bft)
25.06.2013 04:20 11,1 C 10,1 C 96 % 1024,7 hPa 0,0 l/m 0 min 0 min 0,0 UV-I 0 W/m 0,0 km/h (0 Bft)
25.06.2013 04:22 11,1 C 10,1 C 96 % 1024,7 hPa 0,0 l/m 0 min 0 min 0,0 UV-I 0 W/m 0,0 km/h (0 Bft)
25.06.2013 04:24 11,1 C 10,1 C 96 % 1024,7 hPa 0,0 l/m 0 min 0 min 0,0 UV-I 0 W/m 0,0 km/h (0 Bft)
25.06.2013 04:26 11,1 C 10,1 C 96 % 1024,7 hPa 0,0 l/m 0 min 0 min 0,0 UV-I 0 W/m 0,0 km/h (0 Bft)
25.06.2013 04:28 11,1 C 10,1 C 96 % 1024,6 hPa 0,0 l/m 0 min 0 min 0,0 UV-I 0 W/m 0,0 km/h (0 Bft)
25.06.2013 04:30 11,1 C 10,1 C 96 % 1024,6 hPa 0,0 l/m 0 min 0 min 0,0 UV-I 0 W/m 2,6 km/h (1 Bft)
25.06.2013 04:32 11,0 C 10,1 C 96 % 1024,6 hPa 0,0 l/m 0 min 0 min 0,0 UV-I 0 W/m 0,0 km/h (0 Bft)
25.06.2013 04:34 11,0 C 10,1 C 96 % 1024,6 hPa 0,0 l/m 0 min 0 min 0,0 UV-I 0 W/m 0,0 km/h (0 Bft)
25.06.2013 04:36 11,0 C 10,1 C 96 % 1024,7 hPa 0,0 l/m 0 min 0 min 0,0 UV-I 0 W/m 0,0 km/h (0 Bft)
25.06.2013 04:38 11,0 C 10,1 C 96 % 1024,7 hPa 0,0 l/m 0 min 0 min 0,0 UV-I 0 W/m 0,0 km/h (0 Bft)
25.06.2013 04:40 11,0 C 10,1 C 96 % 1024,6 hPa 0,0 l/m 0 min 0 min 0,0 UV-I 0 W/m 0,0 km/h (0 Bft)
25.06.2013 04:42 11,0 C 10,1 C 96 % 1024,7 hPa 0,0 l/m 0 min 0 min 0,0 UV-I 0 W/m 0,0 km/h (0 Bft)
25.06.2013 04:44 11,0 C 10,1 C 96 % 1024,7 hPa 0,0 l/m 0 min 0 min 0,0 UV-I 0 W/m 0,0 km/h (0 Bft)
25.06.2013 04:46 10,9 C 10,1 C 96 % 1024,7 hPa 0,0 l/m 0 min 0 min 0,0 UV-I 0 W/m 0,0 km/h (0 Bft)
25.06.2013 04:48 10,9 C 10,1 C 96 % 1024,7 hPa 0,0 l/m 0 min 0 min 0,0 UV-I 0 W/m 0,0 km/h (0 Bft)
25.06.2013 04:50 10,9 C 10,1 C 96 % 1024,7 hPa 0,0 l/m 0 min 0 min 0,0 UV-I 0 W/m 0,0 km/h (0 Bft)
25.06.2013 04:52 10,9 C 10,1 C 96 % 1024,7 hPa 0,0 l/m 0 min 0 min 0,0 UV-I 0 W/m 0,0 km/h (0 Bft)
25.06.2013 04:54 10,9 C 10,1 C 96 % 1024,7 hPa 0,0 l/m 0 min 0 min 0,0 UV-I 0 W/m 0,0 km/h (0 Bft)
25.06.2013 04:56 10,9 C 10,1 C 96 % 1024,7 hPa 0,0 l/m 0 min 0 min 0,0 UV-I 0 W/m 0,0 km/h (0 Bft)
25.06.2013 04:58 10,9 C 10,1 C 96 % 1024,6 hPa 0,0 l/m 0 min 0 min 0,0 UV-I 0 W/m 0,0 km/h (0 Bft)
25.06.2013 05:00 10,9 C 10,1 C 96 % 1024,6 hPa 0,0 l/m 0 min 0 min 0,0 UV-I 0 W/m 0,0 km/h (0 Bft)
25.06.2013 05:02 10,9 C 10,1 C 96 % 1024,6 hPa 0,0 l/m 0 min 0 min 0,0 UV-I 0 W/m 0,0 km/h (0 Bft)
25.06.2013 05:06 10,9 C 10,1 C 96 % 1024,7 hPa 0,0 l/m 0 min 0 min 0,0 UV-I 0 W/m 0,0 km/h (0 Bft)
25.06.2013 05:08 10,9 C 10,1 C 96 % 1024,8 hPa 0,0 l/m 0 min 0 min 0,0 UV-I 0 W/m 0,0 km/h (0 Bft)
25.06.2013 05:10 10,8 C 10,1 C 96 % 1024,7 hPa 0,0 l/m 0 min 0 min 0,0 UV-I 0 W/m 0,0 km/h (0 Bft)
25.06.2013 05:12 10,8 C 10,1 C 96 % 1024,7 hPa 0,0 l/m 0 min 0 min 0,0 UV-I 0 W/m 0,0 km/h (0 Bft)
25.06.2013 05:14 10,8 C 10,1 C 96 % 1024,7 hPa 0,0 l/m 0 min 0 min 0,0 UV-I 0 W/m 0,0 km/h (0 Bft)
25.06.2013 05:16 10,8 C 10,1 C 96 % 1024,7 hPa 0,0 l/m 0 min 0 min 0,0 UV-I 0 W/m 0,0 km/h (0 Bft)
25.06.2013 05:18 10,8 C 10,1 C 96 % 1024,8 hPa 0,0 l/m 0 min 0 min 0,0 UV-I 0 W/m 0,0 km/h (0 Bft)
25.06.2013 05:20 10,8 C 10,1 C 96 % 1024,7 hPa 0,0 l/m 0 min 0 min 0,0 UV-I 0 W/m 0,0 km/h (0 Bft)
25.06.2013 05:22 10,8 C 10,1 C 96 % 1024,7 hPa 0,0 l/m 0 min 0 min 0,0 UV-I 0 W/m 0,0 km/h (0 Bft)
25.06.2013 05:24 10,8 C 10,1 C 96 % 1024,8 hPa 0,0 l/m 0 min 0 min 0,0 UV-I 0 W/m 0,0 km/h (0 Bft)
25.06.2013 05:26 10,8 C 10,1 C 96 % 1024,8 hPa 0,0 l/m 0 min 0 min 0,0 UV-I 5 W/m 0,0 km/h (0 Bft)
25.06.2013 05:28 10,8 C 10,1 C 96 % 1024,8 hPa 0,0 l/m 0 min 0 min 0,0 UV-I 5 W/m 0,0 km/h (0 Bft)
25.06.2013 05:30 10,8 C 10,1 C 96 % 1024,7 hPa 0,0 l/m 0 min 0 min 0,0 UV-I 5 W/m 0,0 km/h (0 Bft)
25.06.2013 05:32 10,8 C 10,1 C 96 % 1024,7 hPa 0,0 l/m 0 min 0 min 0,0 UV-I 7 W/m 0,0 km/h (0 Bft)
25.06.2013 05:34 10,8 C 10,1 C 96 % 1024,7 hPa 0,0 l/m 0 min 0 min 0,0 UV-I 7 W/m 0,0 km/h (0 Bft)
25.06.2013 05:36 10,8 C 10,1 C 96 % 1024,8 hPa 0,0 l/m 0 min 0 min 0,0 UV-I 7 W/m 0,0 km/h (0 Bft)
25.06.2013 05:38 10,8 C 10,1 C 96 % 1024,8 hPa 0,0 l/m 0 min 0 min 0,0 UV-I 9 W/m 0,0 km/h (0 Bft)
25.06.2013 05:40 10,8 C 10,1 C 96 % 1024,8 hPa 0,0 l/m 0 min 0 min 0,0 UV-I 9 W/m 0,0 km/h (0 Bft)
25.06.2013 05:42 10,8 C 10,1 C 97 % 1024,8 hPa 0,0 l/m 0 min 0 min 0,0 UV-I 9 W/m 0,0 km/h (0 Bft)
25.06.2013 05:44 10,8 C 10,1 C 97 % 1024,8 hPa 0,0 l/m 0 min 0 min 0,0 UV-I 11 W/m 0,0 km/h (0 Bft)
25.06.2013 05:46 10,8 C 10,1 C 97 % 1024,8 hPa 0,0 l/m 0 min 0 min 0,0 UV-I 11 W/m 0,0 km/h (0 Bft)
25.06.2013 05:48 10,8 C 10,1 C 97 % 1024,7 hPa 0,0 l/m 0 min 0 min 0,0 UV-I 12 W/m 0,0 km/h (0 Bft)
25.06.2013 05:50 10,8 C 10,1 C 97 % 1024,8 hPa 0,0 l/m 0 min 0 min 0,0 UV-I 12 W/m 0,0 km/h (0 Bft)
25.06.2013 05:52 10,8 C 10,1 C 97 % 1024,8 hPa 0,0 l/m 0 min 0 min 0,0 UV-I 14 W/m 0,0 km/h (0 Bft)
25.06.2013 05:54 10,8 C 10,1 C 97 % 1024,8 hPa 0,0 l/m 0 min 0 min 0,0 UV-I 16 W/m 0,0 km/h (0 Bft)
25.06.2013 05:56 10,8 C 10,1 C 97 % 1024,8 hPa 0,0 l/m 0 min 2 min 0,0 UV-I 18 W/m 0,0 km/h (0 Bft)
25.06.2013 05:58 10,8 C 10,1 C 97 % 1024,7 hPa 0,0 l/m 0 min 0 min 0,0 UV-I 19 W/m 5,1 km/h (1 Bft)
25.06.2013 06:00 10,8 C 10,1 C 97 % 1024,8 hPa 0,0 l/m 0 min 0 min 0,0 UV-I 19 W/m 0,0 km/h (0 Bft)
25.06.2013 06:02 10,8 C 10,1 C 97 % 1024,8 hPa 0,0 l/m 0 min 0 min 0,0 UV-I 19 W/m 0,0 km/h (0 Bft)
25.06.2013 06:06 10,8 C 10,1 C 97 % 1024,7 hPa 0,0 l/m 0 min 0 min 0,0 UV-I 21 W/m 0,0 km/h (0 Bft)
25.06.2013 06:08 10,8 C 10,1 C 97 % 1024,8 hPa 0,0 l/m 0 min 0 min 0,0 UV-I 23 W/m 0,0 km/h (0 Bft)
25.06.2013 06:10 10,8 C 10,1 C 97 % 1024,8 hPa 0,0 l/m 0 min 2 min 0,0 UV-I 25 W/m 0,0 km/h (0 Bft)
25.06.2013 06:12 10,8 C 10,1 C 97 % 1024,8 hPa 0,0 l/m 0 min 0 min 0,0 UV-I 26 W/m 0,0 km/h (0 Bft)
25.06.2013 06:14 10,8 C 10,1 C 97 % 1024,8 hPa 0,0 l/m 0 min 0 min 0,0 UV-I 28 W/m 0,0 km/h (0 Bft)
25.06.2013 06:16 10,8 C 10,1 C 97 % 1024,8 hPa 0,0 l/m 0 min 0 min 0,0 UV-I 30 W/m 0,0 km/h (0 Bft)
25.06.2013 06:18 10,8 C 10,1 C 97 % 1024,8 hPa 0,0 l/m 0 min 2 min 0,0 UV-I 33 W/m 0,0 km/h (0 Bft)
25.06.2013 06:20 10,8 C 10,1 C 97 % 1024,8 hPa 0,0 l/m 0 min 2 min 0,0 UV-I 35 W/m 0,0 km/h (0 Bft)
25.06.2013 06:22 10,8 C 10,1 C 97 % 1024,8 hPa 0,0 l/m 0 min 0 min 0,0 UV-I 39 W/m 0,0 km/h (0 Bft)
25.06.2013 06:24 10,8 C 10,1 C 97 % 1024,8 hPa 0,0 l/m 0 min 0 min 0,0 UV-I 44 W/m 0,0 km/h (0 Bft)
25.06.2013 06:26 10,8 C 10,1 C 97 % 1024,9 hPa 0,0 l/m 0 min 2 min 0,0 UV-I 46 W/m 0,0 km/h (0 Bft)
25.06.2013 06:28 10,8 C 10,1 C 97 % 1024,9 hPa 0,0 l/m 0 min 2 min 0,0 UV-I 46 W/m 0,0 km/h (0 Bft)
25.06.2013 06:30 10,8 C 10,1 C 97 % 1024,9 hPa 0,0 l/m 0 min 2 min 0,0 UV-I 47 W/m 7,7 km/h (2 Bft)
25.06.2013 06:32 10,8 C 10,1 C 97 % 1024,9 hPa 0,0 l/m 0 min 2 min 0,0 UV-I 49 W/m 0,0 km/h (0 Bft)
25.06.2013 06:34 10,8 C 10,7 C 97 % 1024,9 hPa 0,0 l/m 0 min 0 min 0,0 UV-I 51 W/m 0,0 km/h (0 Bft)
25.06.2013 06:36 10,9 C 10,7 C 97 % 1025,0 hPa 0,0 l/m 0 min 0 min 0,0 UV-I 51 W/m 0,0 km/h (0 Bft)
25.06.2013 06:38 10,9 C 10,7 C 97 % 1024,9 hPa 0,0 l/m 0 min 0 min 0,0 UV-I 51 W/m 0,0 km/h (0 Bft)
25.06.2013 06:40 10,9 C 10,7 C 97 % 1025,0 hPa 0,0 l/m 0 min 0 min 0,0 UV-I 49 W/m 0,0 km/h (0 Bft)
25.06.2013 06:42 10,9 C 10,7 C 97 % 1025,1 hPa 0,0 l/m 0 min 0 min 0,0 UV-I 51 W/m 7,7 km/h (2 Bft)
25.06.2013 06:44 10,9 C 10,7 C 97 % 1025,0 hPa 0,0 l/m 0 min 0 min 0,0 UV-I 53 W/m 2,6 km/h (1 Bft)
25.06.2013 06:46 10,9 C 10,7 C 97 % 1025,0 hPa 0,0 l/m 0 min 0 min 0,0 UV-I 53 W/m 5,1 km/h (1 Bft)
25.06.2013 06:48 11,0 C 10,7 C 97 % 1025,1 hPa 0,0 l/m 0 min 0 min 0,0 UV-I 54 W/m 0,0 km/h (0 Bft)
25.06.2013 06:50 11,0 C 10,7 C 97 % 1025,1 hPa 0,0 l/m 0 min 0 min 0,0 UV-I 56 W/m 7,7 km/h (2 Bft)
25.06.2013 06:52 11,0 C 10,7 C 97 % 1025,2 hPa 0,0 l/m 0 min 0 min 0,0 UV-I 58 W/m 10,3 km/h (2 Bft)
25.06.2013 06:54 11,0 C 10,7 C 97 % 1025,2 hPa 0,0 l/m 0 min 0 min 0,0 UV-I 60 W/m 2,6 km/h (1 Bft)
25.06.2013 06:56 11,0 C 10,7 C 97 % 1025,2 hPa 0,0 l/m 0 min 0 min 0,0 UV-I 62 W/m 0,0 km/h (0 Bft)
25.06.2013 06:58 11,0 C 10,7 C 97 % 1025,2 hPa 0,0 l/m 0 min 0 min 0,0 UV-I 63 W/m 0,0 km/h (0 Bft)
25.06.2013 07:00 11,1 C 10,7 C 97 % 1025,2 hPa 0,0 l/m 0 min 0 min 0,0 UV-I 63 W/m 0,0 km/h (0 Bft)
25.06.2013 07:02 11,1 C 10,7 C 97 % 1025,2 hPa 0,0 l/m 0 min 0 min 0,0 UV-I 65 W/m 0,0 km/h (0 Bft)
25.06.2013 07:06 11,1 C 10,7 C 97 % 1025,3 hPa 0,0 l/m 0 min 0 min 0,0 UV-I 69 W/m 7,7 km/h (2 Bft)
25.06.2013 07:08 11,1 C 10,7 C 97 % 1025,2 hPa 0,0 l/m 0 min 0 min 0,0 UV-I 70 W/m 0,0 km/h (0 Bft)
25.06.2013 07:10 11,1 C 11,2 C 97 % 1025,2 hPa 0,0 l/m 0 min 0 min 0,0 UV-I 69 W/m 2,6 km/h (1 Bft)
25.06.2013 07:12 11,2 C 11,2 C 97 % 1025,2 hPa 0,0 l/m 0 min 0 min 0,0 UV-I 69 W/m 0,0 km/h (0 Bft)
25.06.2013 07:14 11,2 C 11,2 C 97 % 1025,2 hPa 0,0 l/m 0 min 0 min 0,0 UV-I 67 W/m 12,9 km/h (3 Bft)
25.06.2013 07:16 11,2 C 11,2 C 97 % 1025,2 hPa 0,0 l/m 0 min 0 min 0,0 UV-I 65 W/m 15,4 km/h (3 Bft)
25.06.2013 07:18 11,2 C 11,2 C 97 % 1025,1 hPa 0,0 l/m 0 min 0 min 0,0 UV-I 63 W/m 7,7 km/h (2 Bft)
25.06.2013 07:20 11,2 C 11,2 C 97 % 1025,2 hPa 0,0 l/m 0 min 0 min 0,0 UV-I 58 W/m 0,0 km/h (0 Bft)
25.06.2013 07:22 11,2 C 11,2 C 97 % 1025,3 hPa 0,0 l/m 0 min 0 min 0,0 UV-I 56 W/m 5,1 km/h (1 Bft)
25.06.2013 07:24 11,2 C 11,2 C 97 % 1025,2 hPa 0,0 l/m 0 min 0 min 0,0 UV-I 62 W/m 2,6 km/h (1 Bft)
25.06.2013 07:26 11,2 C 11,2 C 97 % 1025,2 hPa 0,0 l/m 0 min 0 min 0,0 UV-I 70 W/m 5,1 km/h (1 Bft)
25.06.2013 07:28 11,3 C 11,2 C 97 % 1025,2 hPa 0,0 l/m 0 min 2 min 0,0 UV-I 79 W/m 0,0 km/h (0 Bft)
25.06.2013 07:30 11,3 C 11,2 C 97 % 1025,3 hPa 0,0 l/m 0 min 2 min 0,0 UV-I 84 W/m 0,0 km/h (0 Bft)
25.06.2013 07:32 11,3 C 11,2 C 97 % 1025,2 hPa 0,0 l/m 0 min 2 min 0,0 UV-I 81 W/m 7,7 km/h (2 Bft)
25.06.2013 07:34 11,3 C 11,2 C 97 % 1025,3 hPa 0,0 l/m 0 min 2 min 0,0 UV-I 77 W/m 7,7 km/h (2 Bft)
25.06.2013 07:36 11,3 C 11,2 C 97 % 1025,3 hPa 0,0 l/m 0 min 2 min 0,0 UV-I 76 W/m 2,6 km/h (1 Bft)
25.06.2013 07:38 11,3 C 11,2 C 97 % 1025,4 hPa 0,0 l/m 0 min 0 min 0,0 UV-I 72 W/m 10,3 km/h (2 Bft)
25.06.2013 07:40 11,3 C 11,2 C 97 % 1025,4 hPa 0,0 l/m 0 min 0 min 0,0 UV-I 77 W/m 10,3 km/h (2 Bft)
25.06.2013 07:42 11,3 C 11,2 C 97 % 1025,4 hPa 0,0 l/m 0 min 0 min 0,0 UV-I 79 W/m 2,6 km/h (1 Bft)
25.06.2013 07:44 11,3 C 11,2 C 97 % 1025,5 hPa 0,0 l/m 0 min 0 min 0,0 UV-I 84 W/m 10,3 km/h (2 Bft)
25.06.2013 07:46 11,3 C 11,2 C 97 % 1025,5 hPa 0,0 l/m 0 min 0 min 0,0 UV-I 86 W/m 0,0 km/h (0 Bft)
25.06.2013 07:48 11,3 C 11,2 C 97 % 1025,5 hPa 0,0 l/m 0 min 0 min 0,0 UV-I 86 W/m 5,1 km/h (1 Bft)
25.06.2013 07:50 11,4 C 11,2 C 97 % 1025,5 hPa 0,0 l/m 0 min 0 min 0,0 UV-I 88 W/m 2,6 km/h (1 Bft)
25.06.2013 07:52 11,4 C 11,2 C 97 % 1025,5 hPa 0,0 l/m 0 min 0 min 0,0 UV-I 77 W/m 10,3 km/h (2 Bft)
25.06.2013 07:54 11,4 C 11,2 C 97 % 1025,6 hPa 0,0 l/m 0 min 0 min 0,0 UV-I 74 W/m 0,0 km/h (0 Bft)
25.06.2013 07:56 11,4 C 11,2 C 97 % 1025,6 hPa 0,0 l/m 0 min 0 min 0,0 UV-I 76 W/m 0,0 km/h (0 Bft)
25.06.2013 07:58 11,4 C 11,2 C 97 % 1025,6 hPa 0,0 l/m 0 min 0 min 0,0 UV-I 83 W/m 5,1 km/h (1 Bft)
25.06.2013 08:00 11,4 C 11,8 C 97 % 1025,7 hPa 0,0 l/m 0 min 0 min 0,0 UV-I 81 W/m 0,0 km/h (0 Bft)
25.06.2013 08:02 11,4 C 11,2 C 97 % 1025,7 hPa 0,0 l/m 0 min 0 min 0,0 UV-I 83 W/m 10,3 km/h (2 Bft)
25.06.2013 08:06 11,5 C 11,2 C 97 % 1025,8 hPa 0,0 l/m 0 min 2 min 0,0 UV-I 83 W/m 10,3 km/h (2 Bft)
25.06.2013 08:08 11,5 C 11,2 C 97 % 1025,7 hPa 0,0 l/m 0 min 2 min 0,0 UV-I 90 W/m 12,9 km/h (3 Bft)
25.06.2013 08:10 11,5 C 11,2 C 97 % 1025,7 hPa 0,0 l/m 0 min 2 min 0,0 UV-I 105 W/m 7,7 km/h (2 Bft)
25.06.2013 08:12 11,5 C 11,8 C 97 % 1025,7 hPa 0,0 l/m 0 min 2 min 0,0 UV-I 118 W/m 15,4 km/h (3 Bft)
25.06.2013 08:14 11,5 C 11,2 C 97 % 1025,7 hPa 0,0 l/m 0 min 0 min 0,0 UV-I 130 W/m 7,7 km/h (2 Bft)
25.06.2013 08:16 11,6 C 11,8 C 97 % 1025,7 hPa 0,0 l/m 0 min 0 min 0,0 UV-I 192 W/m 10,3 km/h (2 Bft)
25.06.2013 08:18 11,6 C 11,8 C 97 % 1025,6 hPa 0,0 l/m 2 min 0 min 0,0 UV-I 236 W/m 5,1 km/h (1 Bft)
25.06.2013 08:20 11,6 C 11,8 C 97 % 1025,7 hPa 0,0 l/m 2 min 2 min 0,0 UV-I 279 W/m 7,7 km/h (2 Bft)
25.06.2013 08:22 11,7 C 11,8 C 96 % 1025,6 hPa 0,0 l/m 2 min 0 min 0,0 UV-I 302 W/m 0,0 km/h (0 Bft)
25.06.2013 08:24 11,7 C 12,3 C 96 % 1025,7 hPa 0,0 l/m 2 min 0 min 0,0 UV-I 311 W/m 12,9 km/h (3 Bft)
25.06.2013 08:26 11,8 C 12,3 C 97 % 1025,6 hPa 0,0 l/m 0 min 0 min 0,0 UV-I 223 W/m 0,0 km/h (0 Bft)
25.06.2013 08:28 11,8 C 12,3 C 97 % 1025,7 hPa 0,0 l/m 2 min 0 min 0,0 UV-I 301 W/m 7,7 km/h (2 Bft)
25.06.2013 08:30 11,9 C 12,3 C 97 % 1025,7 hPa 0,0 l/m 2 min 0 min 0,0 UV-I 294 W/m 0,0 km/h (0 Bft)
25.06.2013 08:32 11,9 C 12,9 C 97 % 1025,7 hPa 0,0 l/m 2 min 0 min 0,0 UV-I 262 W/m 2,6 km/h (1 Bft)
25.06.2013 08:34 12,0 C 12,9 C 96 % 1025,7 hPa 0,0 l/m 0 min 0 min 0,0 UV-I 229 W/m 10,3 km/h (2 Bft)
25.06.2013 08:36 12,1 C 12,9 C 96 % 1025,6 hPa 0,0 l/m 2 min 0 min 0,0 UV-I 290 W/m 10,3 km/h (2 Bft)
25.06.2013 08:38 12,1 C 12,9 C 96 % 1025,7 hPa 0,0 l/m 0 min 0 min 0,0 UV-I 239 W/m 10,3 km/h (2 Bft)
25.06.2013 08:40 12,1 C 12,3 C 96 % 1025,7 hPa 0,0 l/m 2 min 0 min 0,0 UV-I 276 W/m 10,3 km/h (2 Bft)
25.06.2013 08:42 12,2 C 12,9 C 96 % 1025,8 hPa 0,0 l/m 2 min 0 min 0,0 UV-I 288 W/m 0,0 km/h (0 Bft)
25.06.2013 08:44 12,2 C 12,9 C 96 % 1025,7 hPa 0,0 l/m 0 min 0 min 0,0 UV-I 236 W/m 10,3 km/h (2 Bft)
25.06.2013 08:46 12,2 C 12,9 C 96 % 1025,8 hPa 0,0 l/m 0 min 0 min 0,0 UV-I 195 W/m 10,3 km/h (2 Bft)
25.06.2013 08:48 12,2 C 12,9 C 96 % 1025,8 hPa 0,0 l/m 0 min 0 min 0,0 UV-I 190 W/m 0,0 km/h (0 Bft)
25.06.2013 08:50 12,3 C 12,9 C 96 % 1025,9 hPa 0,0 l/m 0 min 0 min 0,0 UV-I 192 W/m 7,7 km/h (2 Bft)
25.06.2013 08:52 12,3 C 12,9 C 95 % 1025,8 hPa 0,0 l/m 0 min 0 min 0,0 UV-I 190 W/m 10,3 km/h (2 Bft)
25.06.2013 08:54 12,3 C 12,9 C 95 % 1025,9 hPa 0,0 l/m 0 min 0 min 0,0 UV-I 199 W/m 7,7 km/h (2 Bft)
25.06.2013 08:56 12,4 C 12,9 C 95 % 1025,9 hPa 0,0 l/m 0 min 0 min 0,0 UV-I 239 W/m 15,4 km/h (3 Bft)
25.06.2013 08:58 12,4 C 12,9 C 95 % 1026,0 hPa 0,0 l/m 2 min 0 min 0,0 UV-I 279 W/m 20,6 km/h (4 Bft)
25.06.2013 09:00 12,4 C 12,9 C 94 % 1025,9 hPa 0,0 l/m 0 min 0 min 0,0 UV-I 237 W/m 5,1 km/h (1 Bft)
25.06.2013 09:02 12,4 C 12,9 C 94 % 1025,9 hPa 0,0 l/m 0 min 0 min 0,0 UV-I 206 W/m 10,3 km/h (2 Bft)
25.06.2013 09:05 12,5 C 12,9 C 94 % 1026,0 hPa 0,0 l/m 0 min 0 min 0,0 UV-I 211 W/m 10,3 km/h (2 Bft)
25.06.2013 09:06 12,6 C 12,9 C 94 % 1026,0 hPa 0,0 l/m 0 min 0 min 0,0 UV-I 209 W/m 10,3 km/h (2 Bft)
25.06.2013 09:08 12,6 C 13,4 C 93 % 1026,0 hPa 0,0 l/m 0 min 0 min 0,0 UV-I 209 W/m 7,7 km/h (2 Bft)
25.06.2013 09:10 12,6 C 13,4 C 93 % 1026,0 hPa 0,0 l/m 0 min 0 min 0,0 UV-I 209 W/m 10,3 km/h (2 Bft)
25.06.2013 09:12 12,6 C 13,4 C 93 % 1026,0 hPa 0,0 l/m 0 min 0 min 0,0 UV-I 200 W/m 7,7 km/h (2 Bft)
25.06.2013 09:14 12,7 C 13,4 C 93 % 1026,0 hPa 0,0 l/m 0 min 0 min 0,0 UV-I 204 W/m 15,4 km/h (3 Bft)
25.06.2013 09:16 12,7 C 13,4 C 92 % 1026,0 hPa 0,0 l/m 0 min 0 min 0,0 UV-I 209 W/m 12,9 km/h (3 Bft)
25.06.2013 09:18 12,7 C 12,9 C 92 % 1026,1 hPa 0,0 l/m 0 min 0 min 0,0 UV-I 213 W/m 12,9 km/h (3 Bft)
25.06.2013 09:20 12,7 C 13,4 C 91 % 1026,0 hPa 0,0 l/m 0 min 0 min 0,0 UV-I 206 W/m 5,1 km/h (1 Bft)
25.06.2013 09:22 12,8 C 13,4 C 91 % 1026,1 hPa 0,0 l/m 0 min 0 min 0,0 UV-I 200 W/m 7,7 km/h (2 Bft)
25.06.2013 09:24 12,8 C 13,4 C 91 % 1026,1 hPa 0,0 l/m 0 min 0 min 0,0 UV-I 199 W/m 0,0 km/h (0 Bft)
25.06.2013 09:26 12,8 C 13,4 C 91 % 1026,1 hPa 0,0 l/m 0 min 0 min 0,0 UV-I 230 W/m 7,7 km/h (2 Bft)
25.06.2013 09:28 12,9 C 13,4 C 91 % 1026,1 hPa 0,0 l/m 0 min 0 min 0,5 UV-I 248 W/m 2,6 km/h (1 Bft)
25.06.2013 09:30 12,9 C 13,4 C 91 % 1026,1 hPa 0,0 l/m 0 min 0 min 0,5 UV-I 241 W/m 15,4 km/h (3 Bft)
25.06.2013 09:32 12,9 C 13,4 C 90 % 1026,1 hPa 0,0 l/m 0 min 0 min 0,5 UV-I 258 W/m 12,9 km/h (3 Bft)
25.06.2013 09:34 12,9 C 13,4 C 90 % 1026,1 hPa 0,0 l/m 0 min 0 min 0,0 UV-I 236 W/m 15,4 km/h (3 Bft)
25.06.2013 09:36 12,9 C 12,9 C 89 % 1026,1 hPa 0,0 l/m 0 min 0 min 0,0 UV-I 213 W/m 12,9 km/h (3 Bft)
25.06.2013 09:38 13,0 C 13,4 C 89 % 1026,1 hPa 0,0 l/m 0 min 0 min 0,0 UV-I 213 W/m 12,9 km/h (3 Bft)
25.06.2013 09:40 13,0 C 13,4 C 89 % 1026,1 hPa 0,0 l/m 0 min 0 min 0,0 UV-I 211 W/m 18,0 km/h (3 Bft)
25.06.2013 09:42 13,0 C 13,4 C 89 % 1026,1 hPa 0,0 l/m 0 min 0 min 0,5 UV-I 229 W/m 2,6 km/h (1 Bft)
25.06.2013 09:44 13,0 C 13,4 C 89 % 1026,1 hPa 0,0 l/m 0 min 0 min 0,5 UV-I 232 W/m 12,9 km/h (3 Bft)
25.06.2013 09:46 13,1 C 13,4 C 89 % 1026,1 hPa 0,0 l/m 0 min 0 min 0,6 UV-I 239 W/m 12,9 km/h (3 Bft)
25.06.2013 09:48 13,1 C 13,4 C 89 % 1026,1 hPa 0,0 l/m 0 min 0 min 0,7 UV-I 258 W/m 12,9 km/h (3 Bft)
25.06.2013 09:50 13,1 C 13,4 C 88 % 1026,1 hPa 0,0 l/m 0 min 0 min 0,5 UV-I 239 W/m 7,7 km/h (2 Bft)
25.06.2013 09:52 13,1 C 13,4 C 88 % 1026,1 hPa 0,0 l/m 0 min 0 min 0,5 UV-I 225 W/m 12,9 km/h (3 Bft)
25.06.2013 09:54 13,1 C 13,4 C 88 % 1026,1 hPa 0,0 l/m 0 min 0 min 0,6 UV-I 246 W/m 10,3 km/h (2 Bft)
25.06.2013 09:56 13,2 C 14,0 C 88 % 1026,2 hPa 0,0 l/m 0 min 0 min 0,8 UV-I 294 W/m 15,4 km/h (3 Bft)
25.06.2013 09:58 13,2 C 14,0 C 88 % 1026,1 hPa 0,0 l/m 0 min 0 min 0,7 UV-I 278 W/m 12,9 km/h (3 Bft)
25.06.2013 10:00 13,2 C 14,0 C 88 % 1026,2 hPa 0,0 l/m 0 min 0 min 0,6 UV-I 241 W/m 15,4 km/h (3 Bft)
25.06.2013 10:02 13,3 C 14,0 C 88 % 1026,1 hPa 0,0 l/m 0 min 0 min 0,6 UV-I 244 W/m 12,9 km/h (3 Bft)
25.06.2013 10:06 13,2 C 14,0 C 87 % 1026,1 hPa 0,0 l/m 0 min 0 min 0,8 UV-I 278 W/m 12,9 km/h (3 Bft)
25.06.2013 10:08 13,3 C 14,0 C 87 % 1026,2 hPa 0,0 l/m 0 min 0 min 0,8 UV-I 304 W/m 0,0 km/h (0 Bft)
25.06.2013 10:10 13,3 C 14,0 C 87 % 1026,2 hPa 0,0 l/m 0 min 0 min 0,6 UV-I 267 W/m 7,7 km/h (2 Bft)
25.06.2013 10:12 13,4 C 14,0 C 87 % 1026,2 hPa 0,0 l/m 0 min 0 min 0,7 UV-I 262 W/m 20,6 km/h (4 Bft)
25.06.2013 10:14 13,4 C 14,0 C 86 % 1026,2 hPa 0,0 l/m 0 min 0 min 0,6 UV-I 246 W/m 7,7 km/h (2 Bft)
25.06.2013 10:16 13,4 C 14,0 C 86 % 1026,2 hPa 0,0 l/m 0 min 0 min 0,7 UV-I 258 W/m 15,4 km/h (3 Bft)
25.06.2013 10:18 13,5 C 14,0 C 86 % 1026,1 hPa 0,0 l/m 0 min 0 min 0,7 UV-I 265 W/m 10,3 km/h (2 Bft)
25.06.2013 10:20 13,6 C 14,0 C 86 % 1026,2 hPa 0,0 l/m 0 min 0 min 0,9 UV-I 292 W/m 2,6 km/h (1 Bft)
25.06.2013 10:22 13,6 C 14,6 C 85 % 1026,2 hPa 0,0 l/m 0 min 0 min 1,0 UV-I 316 W/m 12,9 km/h (3 Bft)
25.06.2013 10:24 13,6 C 14,6 C 85 % 1026,2 hPa 0,0 l/m 0 min 0 min 1,0 UV-I 301 W/m 10,3 km/h (2 Bft)
25.06.2013 10:26 13,6 C 14,6 C 85 % 1026,2 hPa 0,0 l/m 0 min 0 min 1,1 UV-I 327 W/m 10,3 km/h (2 Bft)
25.06.2013 10:28 13,6 C 14,6 C 85 % 1026,2 hPa 0,0 l/m 0 min 0 min 1,1 UV-I 322 W/m 10,3 km/h (2 Bft)
25.06.2013 10:30 13,7 C 14,6 C 85 % 1026,2 hPa 0,0 l/m 0 min 0 min 1,2 UV-I 339 W/m 15,4 km/h (3 Bft)
25.06.2013 10:32 13,7 C 14,6 C 84 % 1026,2 hPa 0,0 l/m 0 min 0 min 1,2 UV-I 345 W/m 7,7 km/h (2 Bft)
25.06.2013 10:34 13,7 C 14,6 C 85 % 1026,2 hPa 0,0 l/m 0 min 0 min 1,2 UV-I 343 W/m 12,9 km/h (3 Bft)
25.06.2013 10:36 13,8 C 14,6 C 84 % 1026,2 hPa 0,0 l/m 0 min 0 min 1,2 UV-I 346 W/m 15,4 km/h (3 Bft)
25.06.2013 10:38 13,9 C 15,1 C 85 % 1026,2 hPa 0,0 l/m 0 min 0 min 1,4 UV-I 381 W/m 10,3 km/h (2 Bft)
25.06.2013 10:40 14,0 C 15,7 C 85 % 1026,2 hPa 0,0 l/m 0 min 0 min 1,4 UV-I 387 W/m 7,7 km/h (2 Bft)
25.06.2013 10:42 14,0 C 15,1 C 84 % 1026,2 hPa 0,0 l/m 0 min 0 min 1,2 UV-I 355 W/m 15,4 km/h (3 Bft)
25.06.2013 10:44 14,2 C 15,7 C 84 % 1026,2 hPa 0,0 l/m 0 min 0 min 1,3 UV-I 355 W/m 0,0 km/h (0 Bft)
25.06.2013 10:46 14,2 C 15,1 C 82 % 1026,2 hPa 0,0 l/m 0 min 0 min 1,3 UV-I 371 W/m 18,0 km/h (3 Bft)
25.06.2013 10:48 14,1 C 15,1 C 81 % 1026,2 hPa 0,0 l/m 0 min 0 min 1,3 UV-I 364 W/m 12,9 km/h (3 Bft)
25.06.2013 10:50 14,0 C 15,1 C 81 % 1026,2 hPa 0,0 l/m 0 min 0 min 1,3 UV-I 362 W/m 12,9 km/h (3 Bft)
25.06.2013 10:52 14,0 C 15,1 C 82 % 1026,2 hPa 0,0 l/m 0 min 0 min 1,4 UV-I 362 W/m 10,3 km/h (2 Bft)
25.06.2013 10:54 14,0 C 15,1 C 82 % 1026,2 hPa 0,0 l/m 0 min 0 min 1,5 UV-I 385 W/m 10,3 km/h (2 Bft)
25.06.2013 10:56 14,1 C 15,1 C 82 % 1026,2 hPa 0,0 l/m 0 min 0 min 1,6 UV-I 390 W/m 10,3 km/h (2 Bft)
25.06.2013 10:58 14,2 C 15,7 C 82 % 1026,1 hPa 0,0 l/m 0 min 0 min 1,7 UV-I 399 W/m 2,6 km/h (1 Bft)
25.06.2013 11:00 14,2 C 15,7 C 81 % 1026,1 hPa 0,0 l/m 2 min 0 min 1,8 UV-I 411 W/m 10,3 km/h (2 Bft)
25.06.2013 11:02 14,3 C 15,7 C 81 % 1026,2 hPa 0,0 l/m 2 min 0 min 1,8 UV-I 417 W/m 10,3 km/h (2 Bft)
25.06.2013 11:06 14,4 C 15,7 C 79 % 1026,3 hPa 0,0 l/m 2 min 0 min 1,8 UV-I 429 W/m 12,9 km/h (3 Bft)
25.06.2013 11:08 14,4 C 15,7 C 79 % 1026,2 hPa 0,0 l/m 2 min 0 min 2,0 UV-I 450 W/m 12,9 km/h (3 Bft)
25.06.2013 11:10 14,4 C 15,7 C 79 % 1026,3 hPa 0,0 l/m 2 min 0 min 2,1 UV-I 468 W/m 15,4 km/h (3 Bft)
25.06.2013 11:12 14,3 C 15,7 C 78 % 1026,2 hPa 0,0 l/m 2 min 0 min 2,0 UV-I 464 W/m 15,4 km/h (3 Bft)
25.06.2013 11:14 14,3 C 16,2 C 79 % 1026,2 hPa 0,0 l/m 2 min 0 min 2,0 UV-I 466 W/m 12,9 km/h (3 Bft)
25.06.2013 11:16 14,4 C 16,2 C 79 % 1026,2 hPa 0,0 l/m 2 min 0 min 2,1 UV-I 487 W/m 12,9 km/h (3 Bft)
25.06.2013 11:18 14,5 C 16,2 C 80 % 1026,3 hPa 0,0 l/m 2 min 0 min 2,3 UV-I 506 W/m 18,0 km/h (3 Bft)
25.06.2013 11:20 14,6 C 16,2 C 80 % 1026,3 hPa 0,0 l/m 2 min 0 min 2,2 UV-I 476 W/m 0,0 km/h (0 Bft)
25.06.2013 11:22 14,6 C 16,2 C 79 % 1026,2 hPa 0,0 l/m 2 min 0 min 1,9 UV-I 439 W/m 12,9 km/h (3 Bft)
25.06.2013 11:24 14,7 C 16,2 C 79 % 1026,3 hPa 0,0 l/m 0 min 0 min 1,5 UV-I 360 W/m 10,3 km/h (2 Bft)
25.06.2013 11:26 14,8 C 16,2 C 79 % 1026,3 hPa 0,0 l/m 0 min 0 min 1,6 UV-I 341 W/m 5,1 km/h (1 Bft)
25.06.2013 11:28 14,8 C 16,2 C 77 % 1026,3 hPa 0,0 l/m 0 min 0 min 1,6 UV-I 360 W/m 7,7 km/h (2 Bft)
25.06.2013 11:30 14,9 C 16,2 C 78 % 1026,3 hPa 0,0 l/m 0 min 0 min 1,7 UV-I 359 W/m 7,7 km/h (2 Bft)
25.06.2013 11:32 14,9 C 16,2 C 78 % 1026,3 hPa 0,0 l/m 0 min 0 min 1,9 UV-I 396 W/m 12,9 km/h (3 Bft)
25.06.2013 11:34 14,8 C 16,2 C 76 % 1026,4 hPa 0,0 l/m 0 min 0 min 2,0 UV-I 427 W/m 2,6 km/h (1 Bft)
25.06.2013 11:36 14,7 C 16,2 C 77 % 1026,3 hPa 0,0 l/m 2 min 0 min 2,3 UV-I 471 W/m 15,4 km/h (3 Bft)
25.06.2013 11:38 14,7 C 16,2 C 78 % 1026,3 hPa 0,0 l/m 2 min 0 min 2,5 UV-I 496 W/m 10,3 km/h (2 Bft)
25.06.2013 11:40 14,8 C 16,8 C 77 % 1026,3 hPa 0,0 l/m 2 min 0 min 2,6 UV-I 554 W/m 10,3 km/h (2 Bft)
25.06.2013 11:42 14,8 C 16,8 C 76 % 1026,3 hPa 0,0 l/m 2 min 0 min 2,8 UV-I 547 W/m 12,9 km/h (3 Bft)
25.06.2013 11:44 14,9 C 16,8 C 76 % 1026,3 hPa 0,0 l/m 2 min 0 min 3,0 UV-I 598 W/m 10,3 km/h (2 Bft)
25.06.2013 11:46 15,0 C 17,3 C 77 % 1026,2 hPa 0,0 l/m 2 min 0 min 2,8 UV-I 552 W/m 10,3 km/h (2 Bft)
25.06.2013 11:48 15,0 C 17,3 C 76 % 1026,3 hPa 0,0 l/m 2 min 0 min 2,7 UV-I 527 W/m 7,7 km/h (2 Bft)
25.06.2013 11:50 15,1 C 17,3 C 77 % 1026,3 hPa 0,0 l/m 2 min 0 min 2,7 UV-I 547 W/m 10,3 km/h (2 Bft)
25.06.2013 11:52 15,2 C 17,3 C 76 % 1026,4 hPa 0,0 l/m 2 min 0 min 2,5 UV-I 524 W/m 12,9 km/h (3 Bft)
25.06.2013 11:54 15,2 C 16,8 C 77 % 1026,3 hPa 0,0 l/m 2 min 0 min 1,5 UV-I 490 W/m 18,0 km/h (3 Bft)
25.06.2013 11:56 15,1 C 16,2 C 74 % 1026,3 hPa 0,0 l/m 0 min 0 min 1,2 UV-I 304 W/m 18,0 km/h (3 Bft)
25.06.2013 11:58 15,0 C 15,7 C 75 % 1026,3 hPa 0,0 l/m 0 min 0 min 1,2 UV-I 285 W/m 10,3 km/h (2 Bft)
25.06.2013 12:00 14,9 C 15,7 C 75 % 1026,3 hPa 0,0 l/m 0 min 0 min 1,3 UV-I 302 W/m 10,3 km/h (2 Bft)
25.06.2013 12:02 14,8 C 15,7 C 76 % 1026,3 hPa 0,0 l/m 0 min 0 min 1,5 UV-I 332 W/m 10,3 km/h (2 Bft)
25.06.2013 12:05 14,9 C 16,2 C 77 % 1026,3 hPa 0,0 l/m 0 min 0 min 2,0 UV-I 376 W/m 15,4 km/h (3 Bft)
25.06.2013 12:06 15,0 C 16,2 C 77 % 1026,3 hPa 0,0 l/m 0 min 0 min 2,2 UV-I 415 W/m 12,9 km/h (3 Bft)
25.06.2013 12:08 15,0 C 16,8 C 76 % 1026,4 hPa 0,0 l/m 2 min 0 min 2,5 UV-I 494 W/m 18,0 km/h (3 Bft)
25.06.2013 12:10 15,1 C 17,3 C 77 % 1026,4 hPa 0,0 l/m 2 min 0 min 2,9 UV-I 601 W/m 12,9 km/h (3 Bft)
25.06.2013 12:12 15,3 C 17,9 C 77 % 1026,4 hPa 0,0 l/m 2 min 0 min 3,3 UV-I 638 W/m 7,7 km/h (2 Bft)
25.06.2013 12:14 15,4 C 17,9 C 74 % 1026,4 hPa 0,0 l/m 2 min 0 min 3,5 UV-I 640 W/m 15,4 km/h (3 Bft)
25.06.2013 12:16 15,6 C 18,4 C 75 % 1026,3 hPa 0,0 l/m 2 min 0 min 3,5 UV-I 684 W/m 10,3 km/h (2 Bft)
25.06.2013 12:18 15,6 C 18,4 C 75 % 1026,3 hPa 0,0 l/m 2 min 0 min 3,8 UV-I 656 W/m 12,9 km/h (3 Bft)
25.06.2013 12:20 15,6 C 19,0 C 73 % 1026,3 hPa 0,0 l/m 2 min 0 min 3,7 UV-I 682 W/m 10,3 km/h (2 Bft)
25.06.2013 12:22 15,9 C 19,6 C 75 % 1026,3 hPa 0,0 l/m 2 min 0 min 3,1 UV-I 738 W/m 10,3 km/h (2 Bft)
25.06.2013 12:24 16,1 C 19,0 C 74 % 1026,3 hPa 0,0 l/m 2 min 0 min 2,1 UV-I 738 W/m 12,9 km/h (3 Bft)
25.06.2013 12:26 16,2 C 18,4 C 74 % 1026,3 hPa 0,0 l/m 0 min 0 min 1,4 UV-I 360 W/m 0,0 km/h (0 Bft)
25.06.2013 12:28 16,2 C 17,9 C 73 % 1026,3 hPa 0,0 l/m 0 min 0 min 0,9 UV-I 223 W/m 18,0 km/h (3 Bft)
25.06.2013 12:30 16,1 C 16,8 C 73 % 1026,3 hPa 0,0 l/m 0 min 0 min 1,0 UV-I 207 W/m 10,3 km/h (2 Bft)
25.06.2013 12:32 15,9 C 16,2 C 74 % 1026,3 hPa 0,0 l/m 0 min 0 min 1,4 UV-I 243 W/m 10,3 km/h (2 Bft)
25.06.2013 12:34 15,8 C 16,2 C 74 % 1026,3 hPa 0,0 l/m 0 min 0 min 2,0 UV-I 306 W/m 10,3 km/h (2 Bft)
25.06.2013 12:36 15,8 C 16,8 C 75 % 1026,3 hPa 0,0 l/m 0 min 0 min 2,4 UV-I 367 W/m 7,7 km/h (2 Bft)
25.06.2013 12:38 15,7 C 16,8 C 74 % 1026,3 hPa 0,0 l/m 0 min 0 min 2,7 UV-I 408 W/m 18,0 km/h (3 Bft)
25.06.2013 12:40 15,5 C 17,9 C 74 % 1026,3 hPa 0,0 l/m 2 min 0 min 4,8 UV-I 478 W/m 15,4 km/h (3 Bft)
25.06.2013 12:42 15,6 C 18,4 C 73 % 1026,4 hPa 0,0 l/m 2 min 0 min 3,2 UV-I 594 W/m 18,0 km/h (3 Bft)
25.06.2013 12:44 15,6 C 18,4 C 72 % 1026,3 hPa 0,0 l/m 2 min 0 min 3,2 UV-I 636 W/m 15,4 km/h (3 Bft)
25.06.2013 12:46 15,9 C 19,0 C 75 % 1026,3 hPa 0,0 l/m 2 min 0 min 2,8 UV-I 703 W/m 10,3 km/h (2 Bft)
25.06.2013 12:48 16,2 C 19,0 C 73 % 1026,3 hPa 0,0 l/m 0 min 0 min 2,0 UV-I 403 W/m 10,3 km/h (2 Bft)
25.06.2013 12:50 16,3 C 17,9 C 71 % 1026,3 hPa 0,0 l/m 0 min 0 min 1,6 UV-I 338 W/m 15,4 km/h (3 Bft)
25.06.2013 12:52 16,2 C 17,9 C 70 % 1026,3 hPa 0,0 l/m 0 min 0 min 1,7 UV-I 323 W/m 10,3 km/h (2 Bft)
25.06.2013 12:54 16,2 C 17,3 C 72 % 1026,3 hPa 0,0 l/m 0 min 0 min 2,1 UV-I 371 W/m 7,7 km/h (2 Bft)
25.06.2013 12:56 16,2 C 17,3 C 71 % 1026,2 hPa 0,0 l/m 0 min 0 min 2,7 UV-I 461 W/m 10,3 km/h (2 Bft)
25.06.2013 12:58 16,4 C 18,4 C 73 % 1026,2 hPa 0,0 l/m 2 min 0 min 3,0 UV-I 592 W/m 0,0 km/h (0 Bft)
25.06.2013 13:00 16,6 C 19,0 C 73 % 1026,2 hPa 0,0 l/m 2 min 0 min 2,8 UV-I 512 W/m 10,3 km/h (2 Bft)
25.06.2013 13:02 16,7 C 18,4 C 69 % 1026,2 hPa 0,0 l/m 2 min 0 min 2,7 UV-I 489 W/m 10,3 km/h (2 Bft)
25.06.2013 13:05 16,6 C 18,4 C 71 % 1026,2 hPa 0,0 l/m 0 min 0 min 2,6 UV-I 455 W/m 0,0 km/h (0 Bft)
25.06.2013 13:06 16,6 C 18,4 C 71 % 1026,2 hPa 0,0 l/m 0 min 0 min 2,6 UV-I 459 W/m 10,3 km/h (2 Bft)
25.06.2013 13:08 16,6 C 18,4 C 70 % 1026,2 hPa 0,0 l/m 0 min 0 min 2,6 UV-I 434 W/m 0,0 km/h (0 Bft)
25.06.2013 13:10 16,6 C 17,9 C 69 % 1026,1 hPa 0,0 l/m 0 min 0 min 2,8 UV-I 473 W/m 18,0 km/h (3 Bft)
25.06.2013 13:12 16,5 C 17,9 C 68 % 1026,2 hPa 0,0 l/m 2 min 0 min 3,1 UV-I 547 W/m 15,4 km/h (3 Bft)
25.06.2013 13:14 16,6 C 19,6 C 71 % 1026,1 hPa 0,0 l/m 2 min 0 min 3,4 UV-I 547 W/m 12,9 km/h (3 Bft)
25.06.2013 13:16 17,1 C 20,7 C 72 % 1026,2 hPa 0,0 l/m 2 min 0 min 3,3 UV-I 664 W/m 10,3 km/h (2 Bft)
25.06.2013 13:18 17,3 C 20,7 C 69 % 1026,2 hPa 0,0 l/m 2 min 0 min 3,1 UV-I 594 W/m 2,6 km/h (1 Bft)
25.06.2013 13:20 17,2 C 19,6 C 66 % 1026,2 hPa 0,0 l/m 2 min 0 min 2,8 UV-I 526 W/m 18,0 km/h (3 Bft)
25.06.2013 13:22 16,9 C 19,0 C 66 % 1026,1 hPa 0,0 l/m 0 min 0 min 2,2 UV-I 439 W/m 12,9 km/h (3 Bft)
25.06.2013 13:24 16,8 C 18,4 C 67 % 1026,2 hPa 0,0 l/m 0 min 0 min 1,9 UV-I 378 W/m 12,9 km/h (3 Bft)
25.06.2013 13:26 16,6 C 17,9 C 67 % 1026,2 hPa 0,0 l/m 0 min 0 min 1,8 UV-I 346 W/m 15,4 km/h (3 Bft)
25.06.2013 13:28 16,4 C 17,9 C 68 % 1026,2 hPa 0,0 l/m 0 min 0 min 1,6 UV-I 327 W/m 18,0 km/h (3 Bft)
25.06.2013 13:30 16,4 C 17,3 C 69 % 1026,3 hPa 0,0 l/m 0 min 0 min 1,5 UV-I 313 W/m 18,0 km/h (3 Bft)
25.06.2013 13:32 16,3 C 17,3 C 68 % 1026,2 hPa 0,0 l/m 0 min 0 min 1,5 UV-I 315 W/m 12,9 km/h (3 Bft)
25.06.2013 13:34 16,2 C 16,8 C 68 % 1026,3 hPa 0,0 l/m 0 min 0 min 1,5 UV-I 311 W/m 12,9 km/h (3 Bft)
25.06.2013 13:36 16,2 C 16,8 C 69 % 1026,3 hPa 0,0 l/m 0 min 0 min 1,5 UV-I 308 W/m 10,3 km/h (2 Bft)
25.06.2013 13:38 16,2 C 16,8 C 69 % 1026,4 hPa 0,0 l/m 0 min 0 min 1,5 UV-I 294 W/m 15,4 km/h (3 Bft)
25.06.2013 13:40 16,1 C 16,8 C 69 % 1026,3 hPa 0,0 l/m 0 min 0 min 1,3 UV-I 278 W/m 12,9 km/h (3 Bft)
25.06.2013 13:42 16,1 C 16,8 C 69 % 1026,3 hPa 0,0 l/m 0 min 0 min 1,1 UV-I 253 W/m 10,3 km/h (2 Bft)
25.06.2013 13:44 16,0 C 16,8 C 68 % 1026,3 hPa 0,0 l/m 0 min 0 min 0,9 UV-I 216 W/m 15,4 km/h (3 Bft)
25.06.2013 13:46 15,9 C 16,2 C 69 % 1026,3 hPa 0,0 l/m 0 min 0 min 0,8 UV-I 204 W/m 15,4 km/h (3 Bft)
25.06.2013 13:48 15,9 C 16,2 C 70 % 1026,4 hPa 0,0 l/m 0 min 0 min 0,8 UV-I 200 W/m 18,0 km/h (3 Bft)
25.06.2013 13:50 15,8 C 16,2 C 69 % 1026,4 hPa 0,0 l/m 0 min 0 min 0,8 UV-I 202 W/m 15,4 km/h (3 Bft)
25.06.2013 13:52 15,7 C 15,7 C 70 % 1026,4 hPa 0,0 l/m 0 min 0 min 0,9 UV-I 216 W/m 18,0 km/h (3 Bft)
25.06.2013 13:54 15,7 C 15,7 C 70 % 1026,4 hPa 0,0 l/m 0 min 0 min 1,2 UV-I 246 W/m 20,6 km/h (4 Bft)
25.06.2013 13:56 15,6 C 15,7 C 71 % 1026,4 hPa 0,0 l/m 0 min 0 min 1,3 UV-I 283 W/m 23,2 km/h (4 Bft)
25.06.2013 13:58 15,6 C 15,7 C 71 % 1026,4 hPa 0,0 l/m 0 min 0 min 1,5 UV-I 299 W/m 25,7 km/h (4 Bft)
25.06.2013 14:00 15,4 C 15,7 C 72 % 1026,3 hPa 0,0 l/m 0 min 0 min 1,6 UV-I 313 W/m 18,0 km/h (3 Bft)
25.06.2013 14:02 15,3 C 15,7 C 73 % 1026,3 hPa 0,0 l/m 0 min 0 min 1,7 UV-I 339 W/m 12,9 km/h (3 Bft)
25.06.2013 14:06 15,3 C 16,2 C 73 % 1026,3 hPa 0,0 l/m 0 min 0 min 1,9 UV-I 357 W/m 12,9 km/h (3 Bft)
25.06.2013 14:08 15,3 C 15,7 C 73 % 1026,3 hPa 0,0 l/m 0 min 0 min 2,0 UV-I 367 W/m 18,0 km/h (3 Bft)
25.06.2013 14:10 15,3 C 16,2 C 75 % 1026,2 hPa 0,0 l/m 0 min 0 min 1,9 UV-I 364 W/m 10,3 km/h (2 Bft)
25.06.2013 14:12 15,4 C 16,2 C 73 % 1026,2 hPa 0,0 l/m 0 min 0 min 1,9 UV-I 352 W/m 15,4 km/h (3 Bft)
25.06.2013 14:14 15,6 C 16,2 C 74 % 1026,3 hPa 0,0 l/m 0 min 0 min 2,0 UV-I 323 W/m 7,7 km/h (2 Bft)
25.06.2013 14:16 15,6 C 16,2 C 72 % 1026,3 hPa 0,0 l/m 0 min 0 min 2,1 UV-I 309 W/m 12,9 km/h (3 Bft)
25.06.2013 14:18 15,7 C 16,8 C 73 % 1026,2 hPa 0,0 l/m 0 min 0 min 5,0 UV-I 306 W/m 10,3 km/h (2 Bft)
25.06.2013 14:20 15,9 C 17,3 C 73 % 1026,2 hPa 0,0 l/m 2 min 0 min 5,2 UV-I 1018 W/m 12,9 km/h (3 Bft)
25.06.2013 14:22 16,2 C 17,9 C 72 % 1026,2 hPa 0,0 l/m 2 min 0 min 5,2 UV-I 967 W/m 12,9 km/h (3 Bft)
25.06.2013 14:24 16,4 C 18,4 C 72 % 1026,2 hPa 0,0 l/m 2 min 0 min 5,2 UV-I 942 W/m 10,3 km/h (2 Bft)
25.06.2013 14:26 16,5 C 18,4 C 71 % 1026,2 hPa 0,0 l/m 2 min 0 min 5,1 UV-I 942 W/m 10,3 km/h (2 Bft)
25.06.2013 14:28 16,8 C 19,0 C 72 % 1026,2 hPa 0,0 l/m 2 min 0 min 5,2 UV-I 986 W/m 7,7 km/h (2 Bft)
25.06.2013 14:30 16,9 C 19,0 C 69 % 1026,1 hPa 0,0 l/m 2 min 0 min 5,2 UV-I 1023 W/m 20,6 km/h (4 Bft)
25.06.2013 14:32 16,8 C 19,0 C 68 % 1026,2 hPa 0,0 l/m 2 min 0 min 2,9 UV-I 1023 W/m 7,7 km/h (2 Bft)
25.06.2013 14:34 16,6 C 18,4 C 70 % 1026,2 hPa 0,0 l/m 2 min 0 min 1,6 UV-I 1023 W/m 10,3 km/h (2 Bft)
25.06.2013 14:36 16,4 C 17,9 C 70 % 1026,2 hPa 0,0 l/m 0 min 0 min 0,8 UV-I 169 W/m 2,6 km/h (1 Bft)
25.06.2013 14:38 16,6 C 17,3 C 70 % 1026,2 hPa 0,0 l/m 0 min 0 min 0,0 UV-I 120 W/m 10,3 km/h (2 Bft)
25.06.2013 14:40 16,6 C 16,8 C 69 % 1026,2 hPa 0,0 l/m 0 min 0 min 0,0 UV-I 88 W/m 5,1 km/h (1 Bft)
25.06.2013 14:42 16,4 C 16,2 C 68 % 1026,2 hPa 0,0 l/m 0 min 0 min 0,0 UV-I 51 W/m 12,9 km/h (3 Bft)
25.06.2013 14:44 16,4 C 15,7 C 67 % 1026,2 hPa 0,0 l/m 0 min 0 min 0,0 UV-I 39 W/m 15,4 km/h (3 Bft)
25.06.2013 14:46 16,3 C 15,1 C 68 % 1026,2 hPa 0,0 l/m 0 min 0 min 0,0 UV-I 30 W/m 20,6 km/h (4 Bft)
25.06.2013 14:48 16,2 C 15,1 C 68 % 1026,4 hPa 0,0 l/m 0 min 0 min 0,0 UV-I 23 W/m 7,7 km/h (2 Bft)
25.06.2013 14:50 16,2 C 14,6 C 69 % 1026,4 hPa 0,0 l/m 0 min 0 min 0,0 UV-I 19 W/m 15,4 km/h (3 Bft)
25.06.2013 14:52 16,1 C 14,6 C 68 % 1026,4 hPa 0,0 l/m 0 min 0 min 0,0 UV-I 18 W/m 18,0 km/h (3 Bft)
25.06.2013 14:54 15,9 C 14,6 C 68 % 1026,5 hPa 0,0 l/m 0 min 0 min 0,0 UV-I 19 W/m 20,6 km/h (4 Bft)
25.06.2013 14:56 15,8 C 14,0 C 68 % 1026,5 hPa 0,0 l/m 0 min 0 min 0,0 UV-I 21 W/m 18,0 km/h (3 Bft)
25.06.2013 14:58 15,7 C 14,0 C 67 % 1026,5 hPa 0,0 l/m 0 min 0 min 0,0 UV-I 25 W/m 18,0 km/h (3 Bft)
25.06.2013 15:00 15,5 C 14,0 C 67 % 1026,5 hPa 0,0 l/m 0 min 0 min 0,0 UV-I 30 W/m 20,6 km/h (4 Bft)
25.06.2013 15:02 15,3 C 13,4 C 66 % 1026,6 hPa 0,0 l/m 0 min 0 min 0,0 UV-I 33 W/m 15,4 km/h (3 Bft)
25.06.2013 15:05 15,2 C 13,4 C 66 % 1026,6 hPa 0,0 l/m 0 min 0 min 0,0 UV-I 39 W/m 15,4 km/h (3 Bft)
25.06.2013 15:06 15,2 C 13,4 C 66 % 1026,6 hPa 0,0 l/m 0 min 0 min 0,0 UV-I 40 W/m 12,9 km/h (3 Bft)
25.06.2013 15:08 15,1 C 13,4 C 65 % 1026,6 hPa 0,0 l/m 0 min 0 min 0,0 UV-I 42 W/m 10,3 km/h (2 Bft)
25.06.2013 15:10 15,1 C 13,4 C 66 % 1026,7 hPa 0,0 l/m 0 min 2 min 0,0 UV-I 46 W/m 10,3 km/h (2 Bft)
25.06.2013 15:12 15,0 C 13,4 C 65 % 1026,6 hPa 0,0 l/m 0 min 0 min 0,0 UV-I 51 W/m 10,3 km/h (2 Bft)
25.06.2013 15:14 14,9 C 13,4 C 65 % 1026,7 hPa 0,0 l/m 0 min 0 min 0,0 UV-I 56 W/m 5,1 km/h (1 Bft)
25.06.2013 15:16 14,9 C 14,0 C 66 % 1026,7 hPa 0,0 l/m 0 min 0 min 0,0 UV-I 63 W/m 2,6 km/h (1 Bft)
25.06.2013 15:18 14,9 C 14,0 C 66 % 1026,6 hPa 0,0 l/m 0 min 0 min 0,0 UV-I 74 W/m 0,0 km/h (0 Bft)
25.06.2013 15:20 14,8 C 14,0 C 66 % 1026,7 hPa 0,0 l/m 0 min 0 min 0,0 UV-I 77 W/m 7,7 km/h (2 Bft)
25.06.2013 15:22 14,8 C 14,0 C 66 % 1026,7 hPa 0,0 l/m 0 min 0 min 0,0 UV-I 93 W/m 2,6 km/h (1 Bft)
25.06.2013 15:24 14,8 C 14,0 C 66 % 1026,7 hPa 0,0 l/m 0 min 0 min 0,0 UV-I 113 W/m 2,6 km/h (1 Bft)
25.06.2013 15:26 14,8 C 14,0 C 67 % 1026,7 hPa 0,0 l/m 0 min 0 min 0,0 UV-I 127 W/m 10,3 km/h (2 Bft)
25.06.2013 15:28 14,8 C 14,0 C 67 % 1026,8 hPa 0,0 l/m 0 min 0 min 0,0 UV-I 142 W/m 10,3 km/h (2 Bft)
25.06.2013 15:30 14,7 C 14,6 C 67 % 1026,8 hPa 0,0 l/m 0 min 0 min 0,5 UV-I 176 W/m 5,1 km/h (1 Bft)
25.06.2013 15:32 14,7 C 14,6 C 68 % 1026,7 hPa 0,0 l/m 0 min 0 min 0,7 UV-I 207 W/m 5,1 km/h (1 Bft)
25.06.2013 15:34 14,7 C 15,1 C 68 % 1026,8 hPa 0,0 l/m 0 min 0 min 0,9 UV-I 237 W/m 5,1 km/h (1 Bft)
25.06.2013 15:36 14,8 C 15,1 C 68 % 1026,7 hPa 0,0 l/m 0 min 0 min 1,2 UV-I 281 W/m 10,3 km/h (2 Bft)
25.06.2013 15:38 14,8 C 15,1 C 68 % 1026,7 hPa 0,0 l/m 0 min 0 min 1,4 UV-I 299 W/m 10,3 km/h (2 Bft)
25.06.2013 15:40 14,8 C 15,7 C 67 % 1026,7 hPa 0,0 l/m 0 min 0 min 1,6 UV-I 348 W/m 2,6 km/h (1 Bft)
25.06.2013 15:42 14,9 C 15,7 C 66 % 1026,7 hPa 0,0 l/m 0 min 0 min 2,6 UV-I 418 W/m 10,3 km/h (2 Bft)
25.06.2013 15:44 15,1 C 16,2 C 67 % 1026,7 hPa 0,0 l/m 0 min 0 min 1,8 UV-I 397 W/m 7,7 km/h (2 Bft)
25.06.2013 15:46 15,3 C 16,8 C 67 % 1026,6 hPa 0,0 l/m 0 min 0 min 1,7 UV-I 371 W/m 7,7 km/h (2 Bft)
25.06.2013 15:48 15,3 C 16,2 C 65 % 1026,7 hPa 0,0 l/m 0 min 0 min 1,6 UV-I 341 W/m 12,9 km/h (3 Bft)
25.06.2013 15:50 15,3 C 16,2 C 66 % 1026,7 hPa 0,0 l/m 0 min 0 min 1,6 UV-I 330 W/m 10,3 km/h (2 Bft)
25.06.2013 15:52 15,4 C 16,2 C 66 % 1026,7 hPa 0,0 l/m 0 min 0 min 1,6 UV-I 334 W/m 12,9 km/h (3 Bft)
25.06.2013 15:54 15,4 C 16,8 C 66 % 1026,7 hPa 0,0 l/m 0 min 0 min 1,6 UV-I 327 W/m 7,7 km/h (2 Bft)
25.06.2013 15:56 15,6 C 16,8 C 67 % 1026,7 hPa 0,0 l/m 0 min 0 min 1,5 UV-I 311 W/m 12,9 km/h (3 Bft)
25.06.2013 15:58 15,6 C 16,8 C 66 % 1026,6 hPa 0,0 l/m 0 min 0 min 1,4 UV-I 295 W/m 10,3 km/h (2 Bft)
25.06.2013 16:00 15,7 C 16,8 C 66 % 1026,7 hPa 0,0 l/m 0 min 0 min 1,4 UV-I 302 W/m 0,0 km/h (0 Bft)
25.06.2013 16:02 15,7 C 16,8 C 66 % 1026,7 hPa 0,0 l/m 0 min 0 min 1,5 UV-I 309 W/m 12,9 km/h (3 Bft)
25.06.2013 16:06 15,8 C 16,8 C 68 % 1026,7 hPa 0,0 l/m 0 min 0 min 1,0 UV-I 271 W/m 5,1 km/h (1 Bft)
25.06.2013 16:08 15,9 C 16,8 C 66 % 1026,7 hPa 0,0 l/m 0 min 0 min 0,8 UV-I 236 W/m 10,3 km/h (2 Bft)
25.06.2013 16:10 15,8 C 16,2 C 67 % 1026,7 hPa 0,0 l/m 0 min 0 min 0,5 UV-I 162 W/m 5,1 km/h (1 Bft)
25.06.2013 16:12 15,8 C 16,2 C 68 % 1026,6 hPa 0,0 l/m 0 min 0 min 0,0 UV-I 141 W/m 5,1 km/h (1 Bft)
25.06.2013 16:14 15,8 C 15,7 C 67 % 1026,6 hPa 0,0 l/m 0 min 0 min 0,0 UV-I 93 W/m 12,9 km/h (3 Bft)
25.06.2013 16:16 15,7 C 15,1 C 67 % 1026,7 hPa 0,0 l/m 0 min 0 min 0,0 UV-I 63 W/m 12,9 km/h (3 Bft)
25.06.2013 16:18 15,7 C 15,1 C 67 % 1026,6 hPa 0,0 l/m 0 min 0 min 0,0 UV-I 53 W/m 12,9 km/h (3 Bft)
25.06.2013 16:20 15,6 C 15,1 C 68 % 1026,7 hPa 0,0 l/m 0 min 0 min 0,0 UV-I 47 W/m 10,3 km/h (2 Bft)
25.06.2013 16:22 15,6 C 14,6 C 68 % 1026,8 hPa 0,0 l/m 0 min 0 min 0,0 UV-I 49 W/m 12,9 km/h (3 Bft)
25.06.2013 16:24 15,6 C 14,6 C 67 % 1026,8 hPa 0,0 l/m 0 min 0 min 0,0 UV-I 56 W/m 12,9 km/h (3 Bft)
25.06.2013 16:26 15,6 C 14,6 C 65 % 1026,8 hPa 0,0 l/m 0 min 0 min 0,0 UV-I 67 W/m 12,9 km/h (3 Bft)
25.06.2013 16:28 15,6 C 14,6 C 64 % 1026,8 hPa 0,0 l/m 0 min 0 min 0,0 UV-I 91 W/m 15,4 km/h (3 Bft)
25.06.2013 16:30 15,6 C 14,6 C 63 % 1026,7 hPa 0,0 l/m 0 min 0 min 0,0 UV-I 109 W/m 12,9 km/h (3 Bft)
25.06.2013 16:32 15,6 C 15,1 C 64 % 1026,7 hPa 0,0 l/m 0 min 0 min 0,0 UV-I 123 W/m 15,4 km/h (3 Bft)
25.06.2013 16:34 15,6 C 15,1 C 65 % 1026,8 hPa 0,0 l/m 0 min 0 min 0,0 UV-I 153 W/m 10,3 km/h (2 Bft)
25.06.2013 16:36 15,6 C 15,1 C 66 % 1026,8 hPa 0,0 l/m 0 min 0 min 0,0 UV-I 179 W/m 12,9 km/h (3 Bft)
25.06.2013 16:38 15,6 C 15,7 C 66 % 1026,7 hPa 0,0 l/m 0 min 0 min 0,5 UV-I 206 W/m 12,9 km/h (3 Bft)
25.06.2013 16:40 15,6 C 15,7 C 66 % 1026,8 hPa 0,0 l/m 0 min 0 min 0,6 UV-I 236 W/m 10,3 km/h (2 Bft)
25.06.2013 16:42 15,6 C 15,7 C 65 % 1026,9 hPa 0,0 l/m 0 min 0 min 0,7 UV-I 253 W/m 18,0 km/h (3 Bft)
25.06.2013 16:44 15,6 C 15,7 C 65 % 1026,9 hPa 0,0 l/m 0 min 0 min 0,8 UV-I 272 W/m 15,4 km/h (3 Bft)
25.06.2013 16:46 15,7 C 16,2 C 64 % 1026,9 hPa 0,0 l/m 0 min 0 min 1,1 UV-I 316 W/m 18,0 km/h (3 Bft)
25.06.2013 16:48 15,7 C 16,2 C 65 % 1026,8 hPa 0,0 l/m 0 min 0 min 1,3 UV-I 369 W/m 10,3 km/h (2 Bft)
25.06.2013 16:50 15,9 C 16,8 C 62 % 1026,8 hPa 0,0 l/m 2 min 0 min 1,7 UV-I 464 W/m 10,3 km/h (2 Bft)
25.06.2013 16:52 16,1 C 17,3 C 61 % 1026,8 hPa 0,0 l/m 2 min 0 min 2,0 UV-I 529 W/m 12,9 km/h (3 Bft)
25.06.2013 16:54 16,3 C 17,3 C 57 % 1026,7 hPa 0,0 l/m 2 min 0 min 1,7 UV-I 529 W/m 15,4 km/h (3 Bft)
25.06.2013 16:56 16,3 C 17,3 C 57 % 1026,7 hPa 0,0 l/m 2 min 0 min 1,5 UV-I 468 W/m 15,4 km/h (3 Bft)
25.06.2013 16:58 16,3 C 17,3 C 57 % 1026,7 hPa 0,0 l/m 2 min 0 min 1,6 UV-I 436 W/m 7,7 km/h (2 Bft)
25.06.2013 17:00 16,4 C 17,3 C 56 % 1026,7 hPa 0,0 l/m 2 min 0 min 1,7 UV-I 436 W/m 18,0 km/h (3 Bft)
25.06.2013 17:02 16,3 C 16,8 C 55 % 1026,7 hPa 0,0 l/m 0 min 0 min 1,4 UV-I 336 W/m 20,6 km/h (4 Bft)
25.06.2013 17:05 16,4 C 17,3 C 58 % 1026,6 hPa 0,0 l/m 2 min 0 min 1,8 UV-I 406 W/m 18,0 km/h (3 Bft)
25.06.2013 17:06 16,4 C 17,3 C 58 % 1026,6 hPa 0,0 l/m 1 min 0 min 1,6 UV-I 439 W/m 12,9 km/h (3 Bft)
25.06.2013 17:08 16,6 C 17,3 C 57 % 1026,7 hPa 0,0 l/m 2 min 0 min 2,0 UV-I 554 W/m 18,0 km/h (3 Bft)
25.06.2013 17:10 16,7 C 17,9 C 56 % 1026,7 hPa 0,0 l/m 2 min 0 min 1,7 UV-I 396 W/m 18,0 km/h (3 Bft)
25.06.2013 17:12 16,7 C 17,9 C 57 % 1026,7 hPa 0,0 l/m 2 min 0 min 2,2 UV-I 396 W/m 15,4 km/h (3 Bft)
25.06.2013 17:14 16,8 C 17,9 C 57 % 1026,7 hPa 0,0 l/m 2 min 0 min 1,6 UV-I 360 W/m 12,9 km/h (3 Bft)
25.06.2013 17:16 16,9 C 17,3 C 58 % 1026,7 hPa 0,0 l/m 2 min 0 min 1,9 UV-I 394 W/m 10,3 km/h (2 Bft)
25.06.2013 17:18 16,9 C 17,3 C 57 % 1026,7 hPa 0,0 l/m 2 min 0 min 1,2 UV-I 475 W/m 20,6 km/h (4 Bft)
25.06.2013 17:20 16,9 C 17,3 C 57 % 1026,7 hPa 0,0 l/m 0 min 0 min 1,0 UV-I 297 W/m 23,2 km/h (4 Bft)
25.06.2013 17:22 16,8 C 17,3 C 57 % 1026,7 hPa 0,0 l/m 0 min 0 min 1,1 UV-I 332 W/m 15,4 km/h (3 Bft)
25.06.2013 17:24 16,8 C 17,3 C 57 % 1026,8 hPa 0,0 l/m 2 min 0 min 2,0 UV-I 376 W/m 10,3 km/h (2 Bft)
25.06.2013 17:26 16,8 C 17,3 C 57 % 1026,7 hPa 0,0 l/m 2 min 0 min 1,7 UV-I 814 W/m 15,4 km/h (3 Bft)
25.06.2013 17:28 17,0 C 17,9 C 60 % 1026,7 hPa 0,0 l/m 2 min 0 min 1,1 UV-I 343 W/m 7,7 km/h (2 Bft)
25.06.2013 17:30 17,1 C 17,9 C 57 % 1026,7 hPa 0,0 l/m 2 min 0 min 1,2 UV-I 350 W/m 15,4 km/h (3 Bft)
25.06.2013 17:32 17,1 C 17,9 C 58 % 1026,8 hPa 0,0 l/m 2 min 0 min 1,4 UV-I 350 W/m 12,9 km/h (3 Bft)
25.06.2013 17:34 17,1 C 17,3 C 58 % 1026,8 hPa 0,0 l/m 2 min 0 min 1,0 UV-I 350 W/m 12,9 km/h (3 Bft)
25.06.2013 17:36 16,9 C 16,8 C 57 % 1026,8 hPa 0,0 l/m 0 min 0 min 0,9 UV-I 272 W/m 15,4 km/h (3 Bft)
25.06.2013 17:38 16,8 C 16,8 C 59 % 1026,8 hPa 0,0 l/m 0 min 0 min 0,8 UV-I 255 W/m 5,1 km/h (1 Bft)
25.06.2013 17:40 16,9 C 17,3 C 60 % 1026,8 hPa 0,0 l/m 0 min 0 min 0,6 UV-I 255 W/m 20,6 km/h (4 Bft)
25.06.2013 17:42 16,8 C 16,8 C 59 % 1026,8 hPa 0,0 l/m 0 min 0 min 0,0 UV-I 199 W/m 20,6 km/h (4 Bft)
25.06.2013 17:44 16,8 C 16,2 C 59 % 1026,8 hPa 0,0 l/m 0 min 0 min 0,0 UV-I 199 W/m 20,6 km/h (4 Bft)
25.06.2013 17:46 16,7 C 16,2 C 59 % 1026,8 hPa 0,0 l/m 0 min 0 min 0,0 UV-I 190 W/m 20,6 km/h (4 Bft)
25.06.2013 17:48 16,6 C 16,2 C 60 % 1026,7 hPa 0,0 l/m 0 min 0 min 0,0 UV-I 172 W/m 23,2 km/h (4 Bft)
25.06.2013 17:50 16,5 C 16,2 C 61 % 1026,8 hPa 0,0 l/m 0 min 0 min 0,0 UV-I 141 W/m 18,0 km/h (3 Bft)
25.06.2013 17:52 16,4 C 15,7 C 61 % 1026,8 hPa 0,0 l/m 0 min 0 min 0,0 UV-I 121 W/m 25,7 km/h (4 Bft)
25.06.2013 17:54 16,3 C 15,7 C 62 % 1026,8 hPa 0,0 l/m 0 min 0 min 0,0 UV-I 111 W/m 25,7 km/h (4 Bft)
25.06.2013 17:56 16,2 C 15,7 C 62 % 1026,8 hPa 0,0 l/m 0 min 0 min 0,0 UV-I 109 W/m 20,6 km/h (4 Bft)
25.06.2013 17:58 16,1 C 15,7 C 60 % 1026,8 hPa 0,0 l/m 0 min 0 min 0,0 UV-I 113 W/m 28,3 km/h (4 Bft)
25.06.2013 18:00 16,1 C 15,7 C 60 % 1026,8 hPa 0,0 l/m 0 min 0 min 0,0 UV-I 121 W/m 30,9 km/h (5 Bft)
25.06.2013 18:02 15,9 C 15,7 C 59 % 1026,8 hPa 0,0 l/m 0 min 0 min 0,0 UV-I 148 W/m 23,2 km/h (4 Bft)
25.06.2013 18:06 15,9 C 15,7 C 60 % 1026,8 hPa 0,0 l/m 0 min 0 min 0,0 UV-I 220 W/m 18,0 km/h (3 Bft)
25.06.2013 18:08 15,9 C 15,7 C 60 % 1026,8 hPa 0,0 l/m 0 min 0 min 0,0 UV-I 271 W/m 20,6 km/h (4 Bft)
25.06.2013 18:10 16,0 C 16,2 C 60 % 1026,9 hPa 0,0 l/m 2 min 0 min 0,0 UV-I 288 W/m 18,0 km/h (3 Bft)
25.06.2013 18:12 16,1 C 16,2 C 60 % 1026,9 hPa 0,0 l/m 2 min 0 min 0,5 UV-I 288 W/m 23,2 km/h (4 Bft)
25.06.2013 18:14 16,1 C 16,2 C 60 % 1026,9 hPa 0,0 l/m 2 min 0 min 0,5 UV-I 285 W/m 25,7 km/h (4 Bft)
25.06.2013 18:16 16,0 C 16,2 C 59 % 1026,9 hPa 0,0 l/m 2 min 0 min 0,5 UV-I 325 W/m 30,9 km/h (5 Bft)
25.06.2013 18:18 16,0 C 16,2 C 60 % 1026,8 hPa 0,0 l/m 2 min 0 min 0,5 UV-I 299 W/m 15,4 km/h (3 Bft)
25.06.2013 18:20 16,0 C 16,2 C 61 % 1026,8 hPa 0,0 l/m 2 min 0 min 0,5 UV-I 334 W/m 20,6 km/h (4 Bft)
25.06.2013 18:22 16,1 C 16,2 C 62 % 1026,8 hPa 0,0 l/m 2 min 0 min 0,5 UV-I 308 W/m 15,4 km/h (3 Bft)
25.06.2013 18:24 16,1 C 16,2 C 61 % 1026,9 hPa 0,0 l/m 2 min 0 min 0,5 UV-I 339 W/m 23,2 km/h (4 Bft)
25.06.2013 18:26 16,1 C 16,2 C 61 % 1026,8 hPa 0,0 l/m 2 min 0 min 0,0 UV-I 315 W/m 18,0 km/h (3 Bft)
25.06.2013 18:28 16,1 C 16,2 C 62 % 1026,8 hPa 0,0 l/m 0 min 0 min 0,0 UV-I 246 W/m 18,0 km/h (3 Bft)
25.06.2013 18:30 16,2 C 16,2 C 62 % 1026,8 hPa 0,0 l/m 0 min 0 min 0,0 UV-I 229 W/m 10,3 km/h (2 Bft)
25.06.2013 18:32 16,2 C 16,2 C 61 % 1026,8 hPa 0,0 l/m 0 min 0 min 0,0 UV-I 232 W/m 20,6 km/h (4 Bft)
25.06.2013 18:34 16,2 C 16,2 C 62 % 1026,8 hPa 0,0 l/m 2 min 0 min 0,0 UV-I 315 W/m 12,9 km/h (3 Bft)
25.06.2013 18:36 16,2 C 16,2 C 61 % 1026,8 hPa 0,0 l/m 2 min 0 min 0,0 UV-I 272 W/m 25,7 km/h (4 Bft)
25.06.2013 18:38 16,1 C 15,7 C 60 % 1026,8 hPa 0,0 l/m 0 min 0 min 0,0 UV-I 202 W/m 20,6 km/h (4 Bft)
25.06.2013 18:40 16,1 C 15,7 C 61 % 1026,8 hPa 0,0 l/m 0 min 0 min 0,0 UV-I 199 W/m 18,0 km/h (3 Bft)
25.06.2013 18:42 16,0 C 15,7 C 61 % 1026,8 hPa 0,0 l/m 0 min 0 min 0,0 UV-I 199 W/m 25,7 km/h (4 Bft)
25.06.2013 18:44 15,9 C 15,7 C 61 % 1026,8 hPa 0,0 l/m 0 min 0 min 0,0 UV-I 202 W/m 18,0 km/h (3 Bft)
25.06.2013 18:46 15,9 C 15,7 C 61 % 1026,8 hPa 0,0 l/m 0 min 0 min 0,0 UV-I 204 W/m 18,0 km/h (3 Bft)
25.06.2013 18:48 15,9 C 15,7 C 61 % 1026,7 hPa 0,0 l/m 0 min 0 min 0,0 UV-I 200 W/m 20,6 km/h (4 Bft)
25.06.2013 18:50 15,9 C 15,7 C 62 % 1026,8 hPa 0,0 l/m 0 min 0 min 0,0 UV-I 195 W/m 15,4 km/h (3 Bft)
25.06.2013 18:52 15,9 C 15,7 C 63 % 1026,8 hPa 0,0 l/m 0 min 0 min 0,0 UV-I 190 W/m 10,3 km/h (2 Bft)
25.06.2013 18:54 15,9 C 16,2 C 63 % 1026,8 hPa 0,0 l/m 0 min 0 min 0,0 UV-I 181 W/m 10,3 km/h (2 Bft)
25.06.2013 18:56 15,9 C 16,2 C 63 % 1026,8 hPa 0,0 l/m 0 min 0 min 0,0 UV-I 174 W/m 7,7 km/h (2 Bft)
25.06.2013 18:58 15,9 C 15,7 C 63 % 1026,7 hPa 0,0 l/m 0 min 0 min 0,0 UV-I 167 W/m 15,4 km/h (3 Bft)
25.06.2013 19:00 15,9 C 15,7 C 63 % 1026,8 hPa 0,0 l/m 0 min 0 min 0,0 UV-I 158 W/m 7,7 km/h (2 Bft)
25.06.2013 19:02 15,9 C 15,7 C 63 % 1026,8 hPa 0,0 l/m 0 min 0 min 0,0 UV-I 153 W/m 12,9 km/h (3 Bft)
25.06.2013 19:06 15,8 C 15,7 C 64 % 1026,9 hPa 0,0 l/m 0 min 0 min 0,0 UV-I 142 W/m 20,6 km/h (4 Bft)
25.06.2013 19:08 15,8 C 15,7 C 63 % 1026,8 hPa 0,0 l/m 0 min 0 min 0,0 UV-I 141 W/m 18,0 km/h (3 Bft)
25.06.2013 19:10 15,7 C 15,7 C 63 % 1026,9 hPa 0,0 l/m 0 min 0 min 0,0 UV-I 135 W/m 12,9 km/h (3 Bft)
25.06.2013 19:12 15,7 C 15,1 C 64 % 1026,9 hPa 0,0 l/m 0 min 0 min 0,0 UV-I 128 W/m 15,4 km/h (3 Bft)
25.06.2013 19:14 15,7 C 15,1 C 63 % 1026,8 hPa 0,0 l/m 0 min 0 min 0,0 UV-I 121 W/m 15,4 km/h (3 Bft)
25.06.2013 19:16 15,6 C 15,1 C 64 % 1026,9 hPa 0,0 l/m 0 min 0 min 0,0 UV-I 127 W/m 18,0 km/h (3 Bft)
25.06.2013 19:18 15,6 C 15,1 C 64 % 1026,9 hPa 0,0 l/m 0 min 0 min 0,0 UV-I 137 W/m 10,3 km/h (2 Bft)
25.06.2013 19:20 15,7 C 15,1 C 64 % 1026,9 hPa 0,0 l/m 0 min 0 min 0,0 UV-I 141 W/m 18,0 km/h (3 Bft)
25.06.2013 19:22 15,7 C 15,1 C 64 % 1026,9 hPa 0,0 l/m 0 min 0 min 0,0 UV-I 144 W/m 25,7 km/h (4 Bft)
25.06.2013 19:24 15,7 C 15,1 C 64 % 1026,9 hPa 0,0 l/m 0 min 0 min 0,0 UV-I 142 W/m 18,0 km/h (3 Bft)
25.06.2013 19:26 15,7 C 15,1 C 64 % 1026,9 hPa 0,0 l/m 0 min 0 min 0,0 UV-I 134 W/m 12,9 km/h (3 Bft)
25.06.2013 19:28 15,6 C 15,1 C 65 % 1026,9 hPa 0,0 l/m 0 min 0 min 0,0 UV-I 118 W/m 10,3 km/h (2 Bft)
25.06.2013 19:30 15,6 C 15,1 C 65 % 1026,9 hPa 0,0 l/m 0 min 0 min 0,0 UV-I 104 W/m 15,4 km/h (3 Bft)
25.06.2013 19:32 15,6 C 15,1 C 65 % 1026,9 hPa 0,0 l/m 0 min 0 min 0,0 UV-I 100 W/m 12,9 km/h (3 Bft)
25.06.2013 19:34 15,6 C 15,1 C 65 % 1026,8 hPa 0,0 l/m 0 min 0 min 0,0 UV-I 98 W/m 12,9 km/h (3 Bft)
25.06.2013 19:36 15,5 C 15,1 C 65 % 1026,9 hPa 0,0 l/m 0 min 0 min 0,0 UV-I 93 W/m 7,7 km/h (2 Bft)
25.06.2013 19:38 15,5 C 15,1 C 66 % 1026,8 hPa 0,0 l/m 0 min 0 min 0,0 UV-I 91 W/m 10,3 km/h (2 Bft)
25.06.2013 19:40 15,5 C 15,1 C 66 % 1026,9 hPa 0,0 l/m 0 min 0 min 0,0 UV-I 88 W/m 15,4 km/h (3 Bft)
25.06.2013 19:42 15,4 C 15,1 C 66 % 1026,9 hPa 0,0 l/m 0 min 0 min 0,0 UV-I 81 W/m 18,0 km/h (3 Bft)
25.06.2013 19:44 15,4 C 15,1 C 66 % 1026,9 hPa 0,0 l/m 0 min 0 min 0,0 UV-I 81 W/m 20,6 km/h (4 Bft)
25.06.2013 19:46 15,4 C 15,1 C 65 % 1026,9 hPa 0,0 l/m 0 min 0 min 0,0 UV-I 84 W/m 12,9 km/h (3 Bft)
25.06.2013 19:48 15,4 C 15,1 C 65 % 1026,9 hPa 0,0 l/m 0 min 0 min 0,0 UV-I 93 W/m 10,3 km/h (2 Bft)
25.06.2013 19:50 15,4 C 15,1 C 66 % 1027,0 hPa 0,0 l/m 0 min 0 min 0,0 UV-I 100 W/m 15,4 km/h (3 Bft)
25.06.2013 19:52 15,4 C 15,1 C 65 % 1026,9 hPa 0,0 l/m 0 min 0 min 0,0 UV-I 109 W/m 12,9 km/h (3 Bft)
25.06.2013 19:54 15,4 C 15,1 C 64 % 1027,0 hPa 0,0 l/m 0 min 0 min 0,0 UV-I 113 W/m 12,9 km/h (3 Bft)
25.06.2013 19:56 15,4 C 15,1 C 65 % 1027,0 hPa 0,0 l/m 0 min 0 min 0,0 UV-I 113 W/m 12,9 km/h (3 Bft)
25.06.2013 19:58 15,4 C 15,1 C 65 % 1026,9 hPa 0,0 l/m 0 min 0 min 0,0 UV-I 102 W/m 7,7 km/h (2 Bft)
25.06.2013 20:00 15,4 C 14,6 C 65 % 1027,0 hPa 0,0 l/m 0 min 0 min 0,0 UV-I 91 W/m 10,3 km/h (2 Bft)
25.06.2013 20:02 15,4 C 14,6 C 65 % 1027,0 hPa 0,0 l/m 0 min 0 min 0,0 UV-I 83 W/m 7,7 km/h (2 Bft)
25.06.2013 20:05 15,3 C 14,6 C 65 % 1027,0 hPa 0,0 l/m 0 min 0 min 0,0 UV-I 70 W/m 10,3 km/h (2 Bft)
25.06.2013 20:06 15,3 C 14,6 C 65 % 1027,0 hPa 0,0 l/m 0 min 0 min 0,0 UV-I 69 W/m 7,7 km/h (2 Bft)
25.06.2013 20:08 15,3 C 14,6 C 65 % 1027,0 hPa 0,0 l/m 0 min 0 min 0,0 UV-I 65 W/m 5,1 km/h (1 Bft)
25.06.2013 20:10 15,3 C 14,6 C 65 % 1027,1 hPa 0,0 l/m 0 min 0 min 0,0 UV-I 62 W/m 7,7 km/h (2 Bft)
25.06.2013 20:12 15,3 C 14,6 C 65 % 1027,1 hPa 0,0 l/m 0 min 0 min 0,0 UV-I 58 W/m 10,3 km/h (2 Bft)
25.06.2013 20:14 15,2 C 14,6 C 66 % 1027,1 hPa 0,0 l/m 0 min 0 min 0,0 UV-I 56 W/m 10,3 km/h (2 Bft)
25.06.2013 20:16 15,2 C 14,6 C 65 % 1027,1 hPa 0,0 l/m 0 min 0 min 0,0 UV-I 53 W/m 12,9 km/h (3 Bft)
25.06.2013 20:18 15,2 C 14,6 C 65 % 1027,1 hPa 0,0 l/m 0 min 0 min 0,0 UV-I 53 W/m 12,9 km/h (3 Bft)
25.06.2013 20:20 15,2 C 14,6 C 65 % 1027,1 hPa 0,0 l/m 0 min 0 min 0,0 UV-I 53 W/m 10,3 km/h (2 Bft)
25.06.2013 20:22 15,2 C 14,6 C 65 % 1027,1 hPa 0,0 l/m 0 min 0 min 0,0 UV-I 53 W/m 10,3 km/h (2 Bft)
25.06.2013 20:24 15,2 C 14,6 C 65 % 1027,1 hPa 0,0 l/m 0 min 0 min 0,0 UV-I 54 W/m 12,9 km/h (3 Bft)
25.06.2013 20:26 15,1 C 14,6 C 66 % 1027,1 hPa 0,0 l/m 0 min 0 min 0,0 UV-I 56 W/m 7,7 km/h (2 Bft)
25.06.2013 20:28 15,1 C 14,6 C 66 % 1027,2 hPa 0,0 l/m 0 min 0 min 0,0 UV-I 60 W/m 7,7 km/h (2 Bft)
25.06.2013 20:30 15,1 C 14,6 C 66 % 1027,1 hPa 0,0 l/m 0 min 0 min 0,0 UV-I 60 W/m 0,0 km/h (0 Bft)
25.06.2013 20:32 15,1 C 14,6 C 67 % 1027,2 hPa 0,0 l/m 0 min 0 min 0,0 UV-I 60 W/m 0,0 km/h (0 Bft)
25.06.2013 20:34 15,1 C 14,6 C 67 % 1027,3 hPa 0,0 l/m 0 min 0 min 0,0 UV-I 58 W/m 0,0 km/h (0 Bft)
25.06.2013 20:36 15,1 C 14,6 C 67 % 1027,2 hPa 0,0 l/m 0 min 0 min 0,0 UV-I 53 W/m 0,0 km/h (0 Bft)
25.06.2013 20:38 15,1 C 14,6 C 67 % 1027,2 hPa 0,0 l/m 0 min 0 min 0,0 UV-I 47 W/m 0,0 km/h (0 Bft)
25.06.2013 20:40 15,1 C 14,0 C 67 % 1027,2 hPa 0,0 l/m 0 min 0 min 0,0 UV-I 46 W/m 10,3 km/h (2 Bft)
25.06.2013 20:42 15,0 C 14,0 C 67 % 1027,2 hPa 0,0 l/m 0 min 0 min 0,0 UV-I 44 W/m 0,0 km/h (0 Bft)
25.06.2013 20:44 14,9 C 14,0 C 67 % 1027,2 hPa 0,0 l/m 0 min 0 min 0,0 UV-I 44 W/m 0,0 km/h (0 Bft)
25.06.2013 20:46 14,9 C 14,0 C 68 % 1027,2 hPa 0,0 l/m 0 min 0 min 0,0 UV-I 44 W/m 0,0 km/h (0 Bft)
25.06.2013 20:48 14,9 C 14,0 C 68 % 1027,2 hPa 0,0 l/m 0 min 0 min 0,0 UV-I 42 W/m 0,0 km/h (0 Bft)
25.06.2013 20:50 14,8 C 14,0 C 68 % 1027,2 hPa 0,0 l/m 0 min 0 min 0,0 UV-I 40 W/m 0,0 km/h (0 Bft)
25.06.2013 20:52 14,8 C 14,0 C 68 % 1027,2 hPa 0,0 l/m 0 min 0 min 0,0 UV-I 40 W/m 0,0 km/h (0 Bft)
25.06.2013 20:54 14,8 C 14,0 C 68 % 1027,2 hPa 0,0 l/m 0 min 0 min 0,0 UV-I 39 W/m 0,0 km/h (0 Bft)
25.06.2013 20:56 14,8 C 14,0 C 68 % 1027,2 hPa 0,0 l/m 0 min 0 min 0,0 UV-I 40 W/m 0,0 km/h (0 Bft)
25.06.2013 20:58 14,8 C 14,0 C 69 % 1027,2 hPa 0,0 l/m 0 min 0 min 0,0 UV-I 37 W/m 0,0 km/h (0 Bft)
25.06.2013 21:00 14,7 C 14,0 C 69 % 1027,3 hPa 0,0 l/m 0 min 0 min 0,0 UV-I 37 W/m 0,0 km/h (0 Bft)
25.06.2013 21:02 14,7 C 14,0 C 69 % 1027,3 hPa 0,0 l/m 0 min 0 min 0,0 UV-I 35 W/m 5,1 km/h (1 Bft)
25.06.2013 21:05 14,7 C 13,4 C 69 % 1027,2 hPa 0,0 l/m 0 min 0 min 0,0 UV-I 32 W/m 0,0 km/h (0 Bft)
25.06.2013 21:06 14,7 C 13,4 C 69 % 1027,2 hPa 0,0 l/m 0 min 0 min 0,0 UV-I 30 W/m 0,0 km/h (0 Bft)
25.06.2013 21:08 14,6 C 13,4 C 69 % 1027,2 hPa 0,0 l/m 0 min 0 min 0,0 UV-I 28 W/m 0,0 km/h (0 Bft)
25.06.2013 21:10 14,6 C 13,4 C 70 % 1027,2 hPa 0,0 l/m 0 min 0 min 0,0 UV-I 26 W/m 5,1 km/h (1 Bft)
25.06.2013 21:12 14,6 C 13,4 C 70 % 1027,2 hPa 0,0 l/m 0 min 0 min 0,0 UV-I 25 W/m 0,0 km/h (0 Bft)
25.06.2013 21:14 14,6 C 13,4 C 70 % 1027,2 hPa 0,0 l/m 0 min 0 min 0,0 UV-I 21 W/m 0,0 km/h (0 Bft)
25.06.2013 21:16 14,5 C 13,4 C 70 % 1027,2 hPa 0,0 l/m 0 min 0 min 0,0 UV-I 21 W/m 0,0 km/h (0 Bft)
25.06.2013 21:18 14,5 C 13,4 C 70 % 1027,3 hPa 0,0 l/m 0 min 0 min 0,0 UV-I 19 W/m 0,0 km/h (0 Bft)
25.06.2013 21:20 14,5 C 13,4 C 70 % 1027,4 hPa 0,0 l/m 0 min 0 min 0,0 UV-I 18 W/m 0,0 km/h (0 Bft)
25.06.2013 21:22 14,5 C 12,9 C 70 % 1027,3 hPa 0,0 l/m 0 min 0 min 0,0 UV-I 16 W/m 0,0 km/h (0 Bft)
25.06.2013 21:24 14,6 C 12,9 C 71 % 1027,3 hPa 0,0 l/m 0 min 0 min 0,0 UV-I 14 W/m 0,0 km/h (0 Bft)
25.06.2013 21:26 14,6 C 12,9 C 71 % 1027,4 hPa 0,0 l/m 0 min 0 min 0,0 UV-I 14 W/m 0,0 km/h (0 Bft)
25.06.2013 21:28 14,5 C 12,9 C 71 % 1027,4 hPa 0,0 l/m 0 min 0 min 0,0 UV-I 12 W/m 0,0 km/h (0 Bft)
25.06.2013 21:30 14,6 C 12,9 C 71 % 1027,4 hPa 0,0 l/m 0 min 0 min 0,0 UV-I 12 W/m 0,0 km/h (0 Bft)
25.06.2013 21:32 14,5 C 12,9 C 71 % 1027,4 hPa 0,0 l/m 0 min 0 min 0,0 UV-I 11 W/m 0,0 km/h (0 Bft)
25.06.2013 21:34 14,5 C 12,9 C 71 % 1027,4 hPa 0,0 l/m 0 min 0 min 0,0 UV-I 11 W/m 0,0 km/h (0 Bft)
25.06.2013 21:36 14,5 C 12,9 C 71 % 1027,4 hPa 0,0 l/m 0 min 0 min 0,0 UV-I 11 W/m 0,0 km/h (0 Bft)
25.06.2013 21:38 14,5 C 12,9 C 71 % 1027,4 hPa 0,0 l/m 0 min 0 min 0,0 UV-I 9 W/m 5,1 km/h (1 Bft)
25.06.2013 21:40 14,4 C 12,9 C 71 % 1027,5 hPa 0,0 l/m 0 min 0 min 0,0 UV-I 9 W/m 5,1 km/h (1 Bft)
25.06.2013 21:42 14,4 C 12,9 C 71 % 1027,6 hPa 0,0 l/m 0 min 0 min 0,0 UV-I 7 W/m 10,3 km/h (2 Bft)
25.06.2013 21:44 14,4 C 12,9 C 71 % 1027,6 hPa 0,0 l/m 0 min 0 min 0,0 UV-I 7 W/m 7,7 km/h (2 Bft)
25.06.2013 21:46 14,4 C 12,9 C 71 % 1027,6 hPa 0,0 l/m 0 min 0 min 0,0 UV-I 7 W/m 2,6 km/h (1 Bft)
25.06.2013 21:48 14,4 C 12,9 C 71 % 1027,6 hPa 0,0 l/m 0 min 0 min 0,0 UV-I 5 W/m 7,7 km/h (2 Bft)
25.06.2013 21:50 14,3 C 12,9 C 70 % 1027,6 hPa 0,0 l/m 0 min 0 min 0,0 UV-I 5 W/m 5,1 km/h (1 Bft)
25.06.2013 21:52 14,3 C 12,9 C 70 % 1027,7 hPa 0,0 l/m 0 min 0 min 0,0 UV-I 5 W/m 2,6 km/h (1 Bft)
25.06.2013 21:54 14,3 C 12,9 C 70 % 1027,7 hPa 0,0 l/m 0 min 0 min 0,0 UV-I 5 W/m 7,7 km/h (2 Bft)
25.06.2013 21:56 14,3 C 12,9 C 70 % 1027,8 hPa 0,0 l/m 0 min 0 min 0,0 UV-I 0 W/m 7,7 km/h (2 Bft)
25.06.2013 21:58 14,2 C 12,9 C 70 % 1027,8 hPa 0,0 l/m 0 min 0 min 0,0 UV-I 0 W/m 10,3 km/h (2 Bft)
25.06.2013 22:00 14,2 C 12,9 C 69 % 1027,8 hPa 0,0 l/m 0 min 0 min 0,0 UV-I 0 W/m 7,7 km/h (2 Bft)
25.06.2013 22:02 14,2 C 12,9 C 69 % 1027,9 hPa 0,0 l/m 0 min 0 min 0,0 UV-I 0 W/m 10,3 km/h (2 Bft)
25.06.2013 22:05 14,1 C 12,9 C 69 % 1027,9 hPa 0,0 l/m 0 min 0 min 0,0 UV-I 0 W/m 15,4 km/h (3 Bft)
25.06.2013 22:06 14,1 C 12,9 C 69 % 1027,9 hPa 0,0 l/m 0 min 0 min 0,0 UV-I 0 W/m 5,1 km/h (1 Bft)
25.06.2013 22:08 14,0 C 12,9 C 69 % 1027,9 hPa 0,0 l/m 0 min 0 min 0,0 UV-I 0 W/m 0,0 km/h (0 Bft)
25.06.2013 22:10 14,0 C 12,9 C 69 % 1027,9 hPa 0,0 l/m 0 min 0 min 0,0 UV-I 0 W/m 10,3 km/h (2 Bft)
25.06.2013 22:12 14,0 C 12,9 C 70 % 1027,9 hPa 0,0 l/m 0 min 0 min 0,0 UV-I 0 W/m 7,7 km/h (2 Bft)
25.06.2013 22:14 14,0 C 12,9 C 70 % 1027,9 hPa 0,0 l/m 0 min 0 min 0,0 UV-I 0 W/m 7,7 km/h (2 Bft)
25.06.2013 22:16 14,0 C 12,9 C 70 % 1028,0 hPa 0,0 l/m 0 min 0 min 0,0 UV-I 0 W/m 10,3 km/h (2 Bft)
25.06.2013 22:18 14,0 C 12,3 C 70 % 1027,9 hPa 0,0 l/m 0 min 0 min 0,0 UV-I 0 W/m 7,7 km/h (2 Bft)
25.06.2013 22:20 14,0 C 12,3 C 70 % 1028,0 hPa 0,0 l/m 0 min 0 min 0,0 UV-I 0 W/m 12,9 km/h (3 Bft)
25.06.2013 22:22 14,0 C 12,3 C 71 % 1028,0 hPa 0,0 l/m 0 min 0 min 0,0 UV-I 0 W/m 12,9 km/h (3 Bft)
25.06.2013 22:24 13,9 C 12,3 C 71 % 1028,1 hPa 0,0 l/m 0 min 0 min 0,0 UV-I 0 W/m 10,3 km/h (2 Bft)
25.06.2013 22:26 13,9 C 12,3 C 71 % 1028,1 hPa 0,0 l/m 0 min 0 min 0,0 UV-I 0 W/m 2,6 km/h (1 Bft)
25.06.2013 22:28 13,8 C 12,3 C 71 % 1028,1 hPa 0,0 l/m 0 min 0 min 0,0 UV-I 0 W/m 7,7 km/h (2 Bft)
25.06.2013 22:30 13,8 C 12,3 C 71 % 1028,1 hPa 0,0 l/m 0 min 0 min 0,0 UV-I 0 W/m 12,9 km/h (3 Bft)
25.06.2013 22:32 13,8 C 12,3 C 71 % 1028,1 hPa 0,0 l/m 0 min 0 min 0,0 UV-I 0 W/m 7,7 km/h (2 Bft)
25.06.2013 22:34 13,8 C 12,3 C 71 % 1028,1 hPa 0,0 l/m 0 min 0 min 0,0 UV-I 0 W/m 10,3 km/h (2 Bft)
25.06.2013 22:36 13,7 C 12,3 C 71 % 1028,2 hPa 0,0 l/m 0 min 0 min 0,0 UV-I 0 W/m 5,1 km/h (1 Bft)
25.06.2013 22:38 13,7 C 12,3 C 71 % 1028,2 hPa 0,0 l/m 0 min 0 min 0,0 UV-I 0 W/m 7,7 km/h (2 Bft)
25.06.2013 22:40 13,7 C 12,3 C 71 % 1028,2 hPa 0,0 l/m 0 min 0 min 0,0 UV-I 0 W/m 5,1 km/h (1 Bft)
25.06.2013 22:42 13,7 C 11,8 C 71 % 1028,2 hPa 0,0 l/m 0 min 0 min 0,0 UV-I 0 W/m 7,7 km/h (2 Bft)
25.06.2013 22:44 13,6 C 11,8 C 71 % 1028,2 hPa 0,0 l/m 0 min 0 min 0,0 UV-I 0 W/m 7,7 km/h (2 Bft)
25.06.2013 22:46 13,6 C 11,8 C 71 % 1028,2 hPa 0,0 l/m 0 min 0 min 0,0 UV-I 0 W/m 2,6 km/h (1 Bft)
25.06.2013 22:48 13,6 C 11,8 C 71 % 1028,2 hPa 0,0 l/m 0 min 0 min 0,0 UV-I 0 W/m 0,0 km/h (0 Bft)
25.06.2013 22:50 13,5 C 11,8 C 71 % 1028,2 hPa 0,0 l/m 0 min 0 min 0,0 UV-I 0 W/m 15,4 km/h (3 Bft)
25.06.2013 22:52 13,5 C 11,8 C 71 % 1028,2 hPa 0,0 l/m 0 min 0 min 0,0 UV-I 0 W/m 7,7 km/h (2 Bft)
25.06.2013 22:54 13,4 C 11,8 C 71 % 1028,2 hPa 0,0 l/m 0 min 0 min 0,0 UV-I 0 W/m 0,0 km/h (0 Bft)
25.06.2013 22:56 13,4 C 11,8 C 71 % 1028,2 hPa 0,0 l/m 0 min 0 min 0,0 UV-I 0 W/m 0,0 km/h (0 Bft)
25.06.2013 22:58 13,4 C 11,8 C 71 % 1028,2 hPa 0,0 l/m 0 min 0 min 0,0 UV-I 0 W/m 2,6 km/h (1 Bft)
25.06.2013 23:00 13,3 C 11,8 C 71 % 1028,2 hPa 0,0 l/m 0 min 0 min 0,0 UV-I 0 W/m 0,0 km/h (0 Bft)
25.06.2013 23:02 13,3 C 11,8 C 72 % 1028,2 hPa 0,0 l/m 0 min 0 min 0,0 UV-I 0 W/m 0,0 km/h (0 Bft)
25.06.2013 23:05 13,3 C 11,8 C 72 % 1028,2 hPa 0,0 l/m 0 min 0 min 0,0 UV-I 0 W/m 0,0 km/h (0 Bft)
25.06.2013 23:06 13,3 C 11,8 C 72 % 1028,2 hPa 0,0 l/m 0 min 0 min 0,0 UV-I 0 W/m 0,0 km/h (0 Bft)
25.06.2013 23:08 13,2 C 11,8 C 72 % 1028,3 hPa 0,0 l/m 0 min 0 min 0,0 UV-I 0 W/m 0,0 km/h (0 Bft)
25.06.2013 23:10 13,2 C 11,8 C 72 % 1028,3 hPa 0,0 l/m 0 min 0 min 0,0 UV-I 0 W/m 0,0 km/h (0 Bft)
25.06.2013 23:12 13,2 C 11,2 C 72 % 1028,3 hPa 0,0 l/m 0 min 0 min 0,0 UV-I 0 W/m 0,0 km/h (0 Bft)
25.06.2013 23:14 13,1 C 11,2 C 73 % 1028,2 hPa 0,0 l/m 0 min 0 min 0,0 UV-I 0 W/m 0,0 km/h (0 Bft)
25.06.2013 23:16 13,1 C 11,2 C 73 % 1028,2 hPa 0,0 l/m 0 min 0 min 0,0 UV-I 0 W/m 0,0 km/h (0 Bft)
25.06.2013 23:18 13,1 C 11,2 C 73 % 1028,3 hPa 0,0 l/m 0 min 0 min 0,0 UV-I 0 W/m 0,0 km/h (0 Bft)
25.06.2013 23:20 13,0 C 11,2 C 73 % 1028,3 hPa 0,0 l/m 0 min 0 min 0,0 UV-I 0 W/m 0,0 km/h (0 Bft)
25.06.2013 23:22 13,0 C 11,2 C 73 % 1028,3 hPa 0,0 l/m 0 min 0 min 0,0 UV-I 0 W/m 0,0 km/h (0 Bft)
25.06.2013 23:24 12,9 C 11,2 C 73 % 1028,3 hPa 0,0 l/m 0 min 0 min 0,0 UV-I 0 W/m 0,0 km/h (0 Bft)
25.06.2013 23:26 12,9 C 11,2 C 73 % 1028,3 hPa 0,0 l/m 0 min 0 min 0,0 UV-I 0 W/m 0,0 km/h (0 Bft)
25.06.2013 23:28 12,9 C 10,7 C 73 % 1028,3 hPa 0,0 l/m 0 min 0 min 0,0 UV-I 0 W/m 0,0 km/h (0 Bft)
25.06.2013 23:30 12,8 C 10,7 C 73 % 1028,3 hPa 0,0 l/m 0 min 0 min 0,0 UV-I 0 W/m 0,0 km/h (0 Bft)
25.06.2013 23:32 12,8 C 10,7 C 73 % 1028,3 hPa 0,0 l/m 0 min 0 min 0,0 UV-I 0 W/m 0,0 km/h (0 Bft)
25.06.2013 23:34 12,8 C 10,7 C 74 % 1028,3 hPa 0,0 l/m 0 min 0 min 0,0 UV-I 0 W/m 0,0 km/h (0 Bft)
25.06.2013 23:36 12,8 C 10,1 C 74 % 1028,3 hPa 0,0 l/m 0 min 0 min 0,0 UV-I 0 W/m 0,0 km/h (0 Bft)
25.06.2013 23:38 12,7 C 10,1 C 74 % 1028,4 hPa 0,0 l/m 0 min 0 min 0,0 UV-I 0 W/m 0,0 km/h (0 Bft)
25.06.2013 23:40 12,7 C 10,1 C 74 % 1028,4 hPa 0,0 l/m 0 min 0 min 0,0 UV-I 0 W/m 0,0 km/h (0 Bft)
25.06.2013 23:42 12,6 C 9,6 C 74 % 1028,4 hPa 0,0 l/m 0 min 0 min 0,0 UV-I 0 W/m 0,0 km/h (0 Bft)
25.06.2013 23:44 12,6 C 9,6 C 74 % 1028,4 hPa 0,0 l/m 0 min 0 min 0,0 UV-I 0 W/m 0,0 km/h (0 Bft)
25.06.2013 23:46 12,6 C 9,6 C 75 % 1028,4 hPa 0,0 l/m 0 min 0 min 0,0 UV-I 0 W/m 0,0 km/h (0 Bft)
25.06.2013 23:48 12,5 C 9,6 C 75 % 1028,4 hPa 0,0 l/m 0 min 0 min 0,0 UV-I 0 W/m 0,0 km/h (0 Bft)
25.06.2013 23:50 12,4 C 9,6 C 75 % 1028,5 hPa 0,0 l/m 0 min 0 min 0,0 UV-I 0 W/m 0,0 km/h (0 Bft)
25.06.2013 23:52 12,3 C 9,6 C 75 % 1028,5 hPa 0,0 l/m 0 min 0 min 0,0 UV-I 0 W/m 0,0 km/h (0 Bft)
25.06.2013 23:54 12,3 C 9,6 C 75 % 1028,5 hPa 0,0 l/m 0 min 0 min 0,0 UV-I 0 W/m 0,0 km/h (0 Bft)
25.06.2013 23:56 12,3 C 9,0 C 76 % 1028,6 hPa 0,0 l/m 0 min 0 min 0,0 UV-I 0 W/m 0,0 km/h (0 Bft)
25.06.2013 23:58 12,2 C 9,0 C 76 % 1028,6 hPa 0,0 l/m 0 min 0 min 0,0 UV-I 0 W/m 0,0 km/h (0 Bft)
_ Min-Zeit 05:48 23:56 17:02 00:00 - - - - - 00:00
Minimum _ 10,7 C 9,0 C 55 % 1023,9 hPa - - - - - 0,0 km/h (0 Bft)
_ Max-Zeit 13:18 13:16 00:26 23:56 00:00 08:18 05:56 14:20 14:30 18:00
Maximum _ 17,3 C 20,7 C 97 % 1028,6 hPa 0,0 l/m 2 min 2 min 5,2 UV-I 1023 W/m 30,9 km/h
NW (5 Bft)
Durchschnitt _ 13,7 C 13,4 C 80 % 1026,0 hPa #0,0 l/m #3:03 h #38 min. 1,7 UV-I 226 W/m 7,4 km/h (2 Bft)
© 2013 W. Hausmann